Wetterdaten: aktuell Freitag, 19.07.2019 21:30
Datum Zeit Temp. 2m Temp. 5cm Temp. -10cm Feuchte 2m Luftdruck Regen Wind Richtung Richtung Taupunkt Windchill Windben
19.07.2019 21:30 16,2 C 13,2 C 20,6 C 66 % 1017,8 hPa 0,0 l/m 0,3 km/h (0 Bft) O-NO 67 9,8 C 16,2 C 0,0 km/h (0 Bft)
19.07.2019 21:28 16,2 C 13,2 C 20,6 C 66 % 1017,8 hPa 0,0 l/m 0,3 km/h (0 Bft) O-NO 67 9,8 C 16,2 C 0,0 km/h (0 Bft)
19.07.2019 21:26 16,3 C 13,2 C 20,7 C 65 % 1017,9 hPa 0,0 l/m 0,3 km/h (0 Bft) O-NO 67 9,7 C 16,3 C 2,5 km/h (1 Bft)
19.07.2019 21:24 16,5 C 13,3 C 20,7 C 65 % 1017,9 hPa 0,0 l/m 0,5 km/h (0 Bft) O-NO 67 9,9 C 16,5 C 2,5 km/h (1 Bft)
19.07.2019 21:22 16,6 C 13,1 C 20,7 C 64 % 1017,9 hPa 0,0 l/m 0,3 km/h (0 Bft) O-NO 67 9,8 C 16,6 C 2,5 km/h (1 Bft)
19.07.2019 21:20 16,6 C 13,1 C 20,7 C 64 % 1017,9 hPa 0,0 l/m 0,2 km/h (0 Bft) NO 45 9,8 C 16,6 C 2,5 km/h (1 Bft)
19.07.2019 21:18 16,6 C 13,1 C 20,7 C 64 % 1017,9 hPa 0,0 l/m 0,0 km/h (0 Bft) O 90 9,8 C 16,6 C 0,0 km/h (0 Bft)
19.07.2019 21:16 16,9 C 13,2 C 20,7 C 64 % 1017,9 hPa 0,0 l/m 0,0 km/h (0 Bft) SO 135 10,0 C 16,9 C 0,0 km/h (0 Bft)
19.07.2019 21:14 16,9 C 13,3 C 20,7 C 64 % 1017,9 hPa 0,0 l/m 0,0 km/h (0 Bft) O 90 10,0 C 16,9 C 0,0 km/h (0 Bft)
19.07.2019 21:12 17,0 C 13,4 C 20,7 C 64 % 1017,9 hPa 0,0 l/m 0,0 km/h (0 Bft) O 90 10,1 C 17,0 C 0,0 km/h (0 Bft)
19.07.2019 21:10 17,1 C 13,6 C 20,8 C 63 % 1017,9 hPa 0,0 l/m 0,5 km/h (0 Bft) O 90 10,0 C 17,1 C 0,0 km/h (0 Bft)
19.07.2019 21:08 17,3 C 13,8 C 20,8 C 63 % 1017,9 hPa 0,0 l/m 0,6 km/h (0 Bft) O 90 10,2 C 17,3 C 0,0 km/h (0 Bft)
19.07.2019 21:06 17,5 C 14,1 C 20,8 C 63 % 1017,7 hPa 0,0 l/m 0,8 km/h (0 Bft) W 270 10,4 C 17,5 C 0,0 km/h (0 Bft)
19.07.2019 21:04 17,5 C 14,3 C 20,8 C 63 % 1017,7 hPa 0,0 l/m 1,1 km/h (1 Bft) O-NO 67 10,4 C 17,5 C 0,0 km/h (0 Bft)
19.07.2019 21:02 17,5 C 14,3 C 20,8 C 63 % 1017,7 hPa 0,0 l/m 1,4 km/h (1 Bft) NO 45 10,4 C 17,5 C 3,5 km/h (1 Bft)
19.07.2019 21:00 17,6 C 14,2 C 20,8 C 63 % 1017,7 hPa 0,0 l/m 1,4 km/h (1 Bft) O-NO 67 10,5 C 17,6 C 3,5 km/h (1 Bft)
19.07.2019 20:58 17,8 C 14,0 C 20,8 C 62 % 1017,7 hPa 0,0 l/m 1,4 km/h (1 Bft) O-NO 67 10,4 C 17,8 C 2,3 km/h (1 Bft)
19.07.2019 20:56 17,9 C 14,0 C 20,8 C 62 % 1017,7 hPa 0,0 l/m 1,8 km/h (1 Bft) O-SO 112 10,5 C 17,9 C 2,3 km/h (1 Bft)
19.07.2019 20:54 17,6 C 13,9 C 20,9 C 63 % 1017,7 hPa 0,0 l/m 1,8 km/h (1 Bft) O-NO 67 10,5 C 17,6 C 3,1 km/h (1 Bft)
19.07.2019 20:52 17,5 C 14,0 C 20,9 C 63 % 1017,7 hPa 0,0 l/m 1,4 km/h (1 Bft) O-NO 67 10,4 C 17,5 C 3,1 km/h (1 Bft)
19.07.2019 20:50 17,7 C 14,2 C 20,9 C 62 % 1017,7 hPa 0,0 l/m 1,1 km/h (1 Bft) O-NO 67 10,3 C 17,7 C 2,7 km/h (1 Bft)
19.07.2019 20:48 17,9 C 14,4 C 20,9 C 62 % 1017,7 hPa 0,0 l/m 0,8 km/h (0 Bft) O-NO 67 10,5 C 17,9 C 2,9 km/h (1 Bft)
19.07.2019 20:46 17,9 C 14,5 C 20,9 C 62 % 1017,4 hPa 0,0 l/m 0,3 km/h (0 Bft) NO 45 10,5 C 17,9 C 2,9 km/h (1 Bft)
19.07.2019 20:44 18,0 C 14,6 C 20,9 C 62 % 1017,4 hPa 0,0 l/m 0,0 km/h (0 Bft) O 90 10,6 C 18,0 C 0,0 km/h (0 Bft)
19.07.2019 20:42 17,9 C 14,8 C 20,9 C 62 % 1017,4 hPa 0,0 l/m 0,0 km/h (0 Bft) O-SO 112 10,5 C 17,9 C 0,0 km/h (0 Bft)
19.07.2019 20:40 18,1 C 15,0 C 20,9 C 61 % 1017,4 hPa 0,0 l/m 0,2 km/h (0 Bft) S-SW 202 10,5 C 18,1 C 0,0 km/h (0 Bft)
19.07.2019 20:38 18,3 C 15,2 C 21,0 C 61 % 1017,4 hPa 0,0 l/m 0,2 km/h (0 Bft) S-SW 202 10,6 C 18,3 C 0,0 km/h (0 Bft)
19.07.2019 20:36 18,5 C 15,0 C 21,0 C 61 % 1017,4 hPa 0,0 l/m 0,2 km/h (0 Bft) O-SO 112 10,8 C 18,5 C 0,0 km/h (0 Bft)
19.07.2019 20:34 18,5 C 15,1 C 21,0 C 61 % 1017,4 hPa 0,0 l/m 0,2 km/h (0 Bft) O-SO 112 10,8 C 18,5 C 0,0 km/h (0 Bft)
19.07.2019 20:32 18,6 C 15,5 C 21,0 C 61 % 1017,4 hPa 0,0 l/m 0,2 km/h (0 Bft) SO 135 10,9 C 18,6 C 0,0 km/h (0 Bft)
19.07.2019 20:30 18,6 C 15,7 C 21,0 C 61 % 1017,4 hPa 0,0 l/m 0,2 km/h (0 Bft) NO 45 10,9 C 18,6 C 0,0 km/h (0 Bft)
19.07.2019 20:28 19,0 C 15,8 C 21,0 C 60 % 1017,4 hPa 0,0 l/m 0,0 km/h (0 Bft) N-NO 22 11,1 C 19,0 C 0,0 km/h (0 Bft)
19.07.2019 20:26 18,8 C 16,0 C 20,9 C 60 % 1017,6 hPa 0,0 l/m 0,0 km/h (0 Bft) W-NW 292 10,9 C 18,8 C 2,1 km/h (1 Bft)
19.07.2019 20:24 18,9 C 16,0 C 20,9 C 60 % 1017,6 hPa 0,0 l/m 0,0 km/h (0 Bft) N-NO 22 11,0 C 18,9 C 2,1 km/h (1 Bft)
19.07.2019 20:22 18,9 C 16,1 C 20,9 C 60 % 1017,6 hPa 0,0 l/m 0,0 km/h (0 Bft) NO 45 11,0 C 18,9 C 0,0 km/h (0 Bft)
19.07.2019 20:20 18,9 C 16,3 C 21,0 C 60 % 1017,6 hPa 0,0 l/m 0,0 km/h (0 Bft) NO 45 11,0 C 18,9 C 0,0 km/h (0 Bft)
19.07.2019 20:18 19,2 C 16,6 C 21,0 C 60 % 1017,6 hPa 0,0 l/m 0,0 km/h (0 Bft) SO 135 11,2 C 19,2 C 0,0 km/h (0 Bft)
19.07.2019 20:16 19,1 C 16,9 C 21,0 C 60 % 1017,6 hPa 0,0 l/m 0,2 km/h (0 Bft) SO 135 11,1 C 19,1 C 0,0 km/h (0 Bft)
19.07.2019 20:14 19,2 C 17,1 C 21,0 C 60 % 1017,6 hPa 0,0 l/m 0,2 km/h (0 Bft) SO 135 11,2 C 19,2 C 0,0 km/h (0 Bft)
19.07.2019 20:12 19,6 C 17,4 C 21,0 C 59 % 1017,6 hPa 0,0 l/m 0,2 km/h (0 Bft) S-SO 157 11,4 C 19,6 C 0,0 km/h (0 Bft)
19.07.2019 20:10 19,7 C 17,5 C 21,0 C 59 % 1017,6 hPa 0,0 l/m 0,2 km/h (0 Bft) S 180 11,5 C 19,7 C 0,0 km/h (0 Bft)
19.07.2019 20:08 20,0 C 17,6 C 21,0 C 58 % 1017,6 hPa 0,0 l/m 0,2 km/h (0 Bft) O-NO 67 11,5 C 20,0 C 2,5 km/h (1 Bft)
19.07.2019 20:06 20,0 C 17,8 C 21,0 C 58 % 1017,7 hPa 0,0 l/m 0,2 km/h (0 Bft) NO 45 11,5 C 20,0 C 2,5 km/h (1 Bft)
19.07.2019 20:04 20,2 C 18,2 C 21,0 C 58 % 1017,7 hPa 0,0 l/m 0,0 km/h (0 Bft) O-NO 67 11,7 C 20,2 C 0,0 km/h (0 Bft)
19.07.2019 20:02 20,4 C 18,4 C 21,0 C 58 % 1017,7 hPa 0,0 l/m 0,0 km/h (0 Bft) O-NO 67 11,9 C 20,4 C 0,0 km/h (0 Bft)
19.07.2019 20:00 20,4 C 18,8 C 21,1 C 58 % 1017,7 hPa 0,0 l/m 0,0 km/h (0 Bft) O-SO 112 11,9 C 20,4 C 0,0 km/h (0 Bft)
19.07.2019 19:58 20,3 C 19,0 C 21,1 C 58 % 1017,7 hPa 0,0 l/m 0,0 km/h (0 Bft) O-NO 67 11,8 C 20,3 C 0,0 km/h (0 Bft)
19.07.2019 19:56 20,2 C 19,0 C 21,1 C 59 % 1017,7 hPa 0,0 l/m 0,0 km/h (0 Bft) O-NO 67 11,9 C 20,2 C 0,0 km/h (0 Bft)
19.07.2019 19:54 20,4 C 19,1 C 21,1 C 58 % 1017,7 hPa 0,0 l/m 0,0 km/h (0 Bft) SO 135 11,9 C 20,4 C 0,0 km/h (0 Bft)
19.07.2019 19:52 20,5 C 19,2 C 21,1 C 58 % 1017,7 hPa 0,0 l/m 0,2 km/h (0 Bft) SO 135 11,9 C 20,5 C 0,0 km/h (0 Bft)
19.07.2019 19:50 20,7 C 19,4 C 21,1 C 58 % 1017,7 hPa 0,0 l/m 0,2 km/h (0 Bft) O-SO 112 12,1 C 20,7 C 0,0 km/h (0 Bft)
19.07.2019 19:48 20,8 C 19,8 C 21,1 C 57 % 1017,7 hPa 0,0 l/m 0,2 km/h (0 Bft) O-NO 67 12,0 C 20,8 C 0,0 km/h (0 Bft)
19.07.2019 19:46 20,8 C 20,4 C 21,1 C 57 % 1017,4 hPa 0,0 l/m 0,2 km/h (0 Bft) N-NW 337 12,0 C 20,8 C 2,3 km/h (1 Bft)
19.07.2019 19:44 20,9 C 20,8 C 21,1 C 57 % 1017,4 hPa 0,0 l/m 0,2 km/h (0 Bft) NO 45 12,1 C 20,9 C 2,3 km/h (1 Bft)
19.07.2019 19:42 21,2 C 21,0 C 21,1 C 56 % 1017,4 hPa 0,0 l/m 0,2 km/h (0 Bft) O-NO 67 12,1 C 21,2 C 0,0 km/h (0 Bft)
19.07.2019 19:40 21,4 C 21,1 C 21,1 C 55 % 1017,4 hPa 0,0 l/m 0,2 km/h (0 Bft) S-SO 157 12,0 C 21,4 C 0,0 km/h (0 Bft)
19.07.2019 19:38 21,5 C 21,2 C 21,2 C 55 % 1017,4 hPa 0,0 l/m 0,2 km/h (0 Bft) S-SW 202 12,1 C 21,5 C 0,0 km/h (0 Bft)
19.07.2019 19:36 21,6 C 21,5 C 21,2 C 55 % 1017,4 hPa 0,0 l/m 0,2 km/h (0 Bft) SO 135 12,2 C 21,6 C 0,0 km/h (0 Bft)
19.07.2019 19:34 21,7 C 21,9 C 21,2 C 53 % 1017,4 hPa 0,0 l/m 0,2 km/h (0 Bft) O 90 11,7 C 21,7 C 2,1 km/h (1 Bft)
19.07.2019 19:32 22,0 C 22,1 C 21,2 C 52 % 1017,4 hPa 0,0 l/m 0,3 km/h (0 Bft) S 180 11,7 C 22,0 C 2,1 km/h (1 Bft)
19.07.2019 19:30 22,1 C 22,1 C 21,2 C 52 % 1017,4 hPa 0,0 l/m 0,5 km/h (0 Bft) S-SW 202 11,8 C 22,1 C 2,1 km/h (1 Bft)
19.07.2019 19:28 22,3 C 22,3 C 21,2 C 52 % 1017,4 hPa 0,0 l/m 0,8 km/h (0 Bft) S-SW 202 12,0 C 22,3 C 0,0 km/h (0 Bft)
19.07.2019 19:26 22,5 C 22,1 C 21,2 C 51 % 1017,5 hPa 0,0 l/m 1,0 km/h (0 Bft) S-SO 157 11,8 C 22,5 C 0,0 km/h (0 Bft)
19.07.2019 19:24 22,7 C 22,0 C 21,2 C 50 % 1017,5 hPa 0,0 l/m 1,1 km/h (1 Bft) S-SW 202 11,7 C 22,7 C 1,9 km/h (1 Bft)
19.07.2019 19:22 22,9 C 22,6 C 21,2 C 50 % 1017,5 hPa 0,0 l/m 1,4 km/h (1 Bft) S 180 11,9 C 22,9 C 2,7 km/h (1 Bft)
19.07.2019 19:20 23,2 C 23,1 C 21,1 C 49 % 1017,5 hPa 0,0 l/m 1,9 km/h (1 Bft) S-SO 157 11,9 C 23,2 C 3,9 km/h (1 Bft)
19.07.2019 19:18 23,3 C 23,7 C 21,1 C 49 % 1017,5 hPa 0,0 l/m 2,7 km/h (1 Bft) SW 225 12,0 C 23,3 C 3,9 km/h (1 Bft)
19.07.2019 19:16 23,3 C 24,0 C 21,1 C 49 % 1017,5 hPa 0,0 l/m 3,1 km/h (1 Bft) O-NO 67 12,0 C 23,3 C 2,1 km/h (1 Bft)
19.07.2019 19:14 23,3 C 23,9 C 21,1 C 48 % 1017,5 hPa 0,0 l/m 3,9 km/h (1 Bft) S-SW 202 11,7 C 23,3 C 3,5 km/h (1 Bft)
19.07.2019 19:12 23,4 C 23,7 C 21,2 C 48 % 1017,5 hPa 0,0 l/m 4,5 km/h (1 Bft) W-SW 247 11,8 C 23,4 C 7,0 km/h (2 Bft)
19.07.2019 19:10 23,4 C 23,8 C 21,2 C 48 % 1017,5 hPa 0,0 l/m 4,8 km/h (1 Bft) W 270 11,8 C 23,4 C 7,7 km/h (2 Bft)
19.07.2019 19:08 23,4 C 23,9 C 21,2 C 48 % 1017,5 hPa 0,0 l/m 4,7 km/h (1 Bft) W 270 11,8 C 23,4 C 7,7 km/h (2 Bft)
19.07.2019 19:06 23,4 C 24,0 C 21,2 C 47 % 1017,5 hPa 0,0 l/m 4,7 km/h (1 Bft) W 270 11,4 C 23,4 C 7,3 km/h (2 Bft)
19.07.2019 19:04 23,4 C 24,1 C 21,2 C 47 % 1017,5 hPa 0,0 l/m 4,7 km/h (1 Bft) NW 315 11,4 C 23,4 C 8,3 km/h (2 Bft)
19.07.2019 19:02 23,6 C 24,1 C 21,2 C 46 % 1017,5 hPa 0,0 l/m 4,5 km/h (1 Bft) SW 225 11,3 C 23,6 C 8,3 km/h (2 Bft)
19.07.2019 19:00 23,7 C 24,5 C 21,2 C 46 % 1017,5 hPa 0,0 l/m 4,3 km/h (1 Bft) W-SW 247 11,4 C 23,7 C 5,2 km/h (1 Bft)
19.07.2019 18:58 23,7 C 24,7 C 21,2 C 46 % 1017,5 hPa 0,0 l/m 4,2 km/h (1 Bft) W 270 11,4 C 23,7 C 9,1 km/h (2 Bft)
19.07.2019 18:56 23,8 C 24,9 C 21,2 C 46 % 1017,5 hPa 0,0 l/m 4,2 km/h (1 Bft) W 270 11,5 C 23,8 C 9,1 km/h (2 Bft)
19.07.2019 18:54 23,8 C 25,2 C 21,2 C 46 % 1017,5 hPa 0,0 l/m 4,0 km/h (1 Bft) SW 225 11,5 C 23,8 C 5,8 km/h (2 Bft)
19.07.2019 18:52 23,9 C 25,2 C 21,2 C 46 % 1017,5 hPa 0,0 l/m 3,4 km/h (1 Bft) SW 225 11,6 C 23,9 C 5,2 km/h (1 Bft)
19.07.2019 18:50 24,0 C 25,2 C 21,2 C 45 % 1017,5 hPa 0,0 l/m 3,4 km/h (1 Bft) SW 225 11,3 C 24,0 C 5,2 km/h (1 Bft)
19.07.2019 18:48 24,0 C 25,7 C 21,2 C 44 % 1017,5 hPa 0,0 l/m 3,2 km/h (1 Bft) W-SW 247 11,0 C 24,0 C 7,0 km/h (2 Bft)
19.07.2019 18:46 24,0 C 25,8 C 21,2 C 44 % 1017,3 hPa 0,0 l/m 3,4 km/h (1 Bft) S-SW 202 11,0 C 24,0 C 7,0 km/h (2 Bft)
19.07.2019 18:44 23,9 C 25,8 C 21,2 C 45 % 1017,3 hPa 0,0 l/m 3,7 km/h (1 Bft) SW 225 11,2 C 23,9 C 5,6 km/h (1 Bft)
19.07.2019 18:42 24,1 C 26,2 C 21,2 C 45 % 1017,3 hPa 0,0 l/m 4,3 km/h (1 Bft) W 270 11,4 C 24,1 C 6,4 km/h (2 Bft)
19.07.2019 18:40 24,2 C 26,2 C 21,2 C 45 % 1017,3 hPa 0,0 l/m 5,1 km/h (1 Bft) W-NW 292 11,5 C 24,2 C 6,4 km/h (2 Bft)
19.07.2019 18:38 24,2 C 25,9 C 21,2 C 44 % 1017,3 hPa 0,0 l/m 5,5 km/h (1 Bft) NW 315 11,2 C 24,2 C 8,3 km/h (2 Bft)
19.07.2019 18:36 24,4 C 26,2 C 21,2 C 44 % 1017,3 hPa 0,0 l/m 5,5 km/h (1 Bft) W 270 11,3 C 24,4 C 9,5 km/h (2 Bft)
19.07.2019 18:34 24,4 C 26,9 C 21,2 C 44 % 1017,3 hPa 0,0 l/m 4,3 km/h (1 Bft) NW 315 11,3 C 24,4 C 9,5 km/h (2 Bft)
19.07.2019 18:32 24,5 C 26,9 C 21,2 C 45 % 1017,3 hPa 0,0 l/m 3,7 km/h (1 Bft) W-NW 292 11,8 C 24,5 C 6,8 km/h (2 Bft)
19.07.2019 18:30 24,5 C 27,0 C 21,2 C 45 % 1017,3 hPa 0,0 l/m 3,4 km/h (1 Bft) W-SW 247 11,8 C 24,5 C 9,3 km/h (2 Bft)
19.07.2019 18:28 24,6 C 27,1 C 21,2 C 45 % 1017,3 hPa 0,0 l/m 2,3 km/h (1 Bft) W-SW 247 11,9 C 24,6 C 9,3 km/h (2 Bft)
19.07.2019 18:26 24,7 C 27,0 C 21,2 C 45 % 1017,2 hPa 0,0 l/m 2,1 km/h (1 Bft) SW 225 12,0 C 24,7 C 6,6 km/h (2 Bft)
19.07.2019 18:24 24,7 C 26,8 C 21,2 C 44 % 1017,2 hPa 0,0 l/m 2,9 km/h (1 Bft) S-SO 157 11,6 C 24,7 C 5,6 km/h (1 Bft)
19.07.2019 18:22 24,9 C 27,1 C 21,2 C 44 % 1017,2 hPa 0,0 l/m 4,3 km/h (1 Bft) S-SO 157 11,8 C 24,9 C 5,6 km/h (1 Bft)
19.07.2019 18:20 24,9 C 27,3 C 21,2 C 44 % 1017,2 hPa 0,0 l/m 5,0 km/h (1 Bft) W 270 11,8 C 24,9 C 2,1 km/h (1 Bft)
19.07.2019 18:18 24,8 C 27,6 C 21,2 C 43 % 1017,2 hPa 0,0 l/m 5,5 km/h (1 Bft) S-SO 157 11,4 C 24,8 C 7,7 km/h (2 Bft)
19.07.2019 18:16 25,0 C 27,6 C 21,2 C 43 % 1017,2 hPa 0,0 l/m 5,6 km/h (1 Bft) W 270 11,5 C 25,0 C 7,7 km/h (2 Bft)
19.07.2019 18:14 25,0 C 27,4 C 21,2 C 43 % 1017,2 hPa 0,0 l/m 5,8 km/h (2 Bft) W-SW 247 11,5 C 25,0 C 11,6 km/h (2 Bft)
19.07.2019 18:12 25,1 C 27,8 C 21,2 C 43 % 1017,2 hPa 0,0 l/m 5,0 km/h (1 Bft) NW 315 11,6 C 25,1 C 11,6 km/h (2 Bft)
19.07.2019 18:10 25,1 C 27,8 C 21,2 C 43 % 1017,2 hPa 0,0 l/m 4,7 km/h (1 Bft) SW 225 11,6 C 25,1 C 8,3 km/h (2 Bft)
19.07.2019 18:08 25,0 C 27,7 C 21,2 C 43 % 1017,2 hPa 0,0 l/m 4,8 km/h (1 Bft) SW 225 11,5 C 25,0 C 5,2 km/h (1 Bft)
19.07.2019 18:06 25,0 C 27,6 C 21,2 C 44 % 1017,4 hPa 0,0 l/m 4,8 km/h (1 Bft) W 270 11,9 C 25,0 C 7,9 km/h (2 Bft)
19.07.2019 18:04 24,9 C 27,4 C 21,2 C 44 % 1017,4 hPa 0,0 l/m 4,7 km/h (1 Bft) SW 225 11,8 C 24,9 C 7,9 km/h (2 Bft)
19.07.2019 18:02 24,7 C 26,5 C 21,2 C 44 % 1017,4 hPa 0,0 l/m 4,7 km/h (1 Bft) NW 315 11,6 C 24,7 C 13,3 km/h (3 Bft)
19.07.2019 18:00 24,5 C 26,1 C 21,2 C 43 % 1017,4 hPa 0,0 l/m 4,3 km/h (1 Bft) NW 315 11,1 C 24,5 C 13,3 km/h (3 Bft)
19.07.2019 17:58 24,5 C 26,1 C 21,2 C 44 % 1017,4 hPa 0,0 l/m 3,4 km/h (1 Bft) NW 315 11,4 C 24,5 C 10,0 km/h (2 Bft)
19.07.2019 17:56 24,6 C 26,1 C 21,2 C 43 % 1017,4 hPa 0,0 l/m 3,7 km/h (1 Bft) W-NW 292 11,2 C 24,6 C 5,8 km/h (2 Bft)
19.07.2019 17:54 24,7 C 26,1 C 21,2 C 43 % 1017,4 hPa 0,0 l/m 3,9 km/h (1 Bft) W 270 11,3 C 24,7 C 4,8 km/h (1 Bft)
19.07.2019 17:52 24,8 C 26,6 C 21,1 C 43 % 1017,4 hPa 0,0 l/m 3,9 km/h (1 Bft) NW 315 11,4 C 24,8 C 4,8 km/h (1 Bft)
19.07.2019 17:50 25,1 C 27,2 C 21,1 C 43 % 1017,4 hPa 0,0 l/m 4,5 km/h (1 Bft) W-NW 292 11,6 C 25,1 C 3,7 km/h (1 Bft)
19.07.2019 17:48 25,3 C 29,0 C 21,1 C 43 % 1017,4 hPa 0,0 l/m 5,3 km/h (1 Bft) N-NO 22 11,8 C 25,3 C 6,2 km/h (2 Bft)
19.07.2019 17:46 25,6 C 30,2 C 21,1 C 43 % 1017,6 hPa 0,0 l/m 5,5 km/h (1 Bft) W-NW 292 12,1 C 25,6 C 6,2 km/h (2 Bft)
19.07.2019 17:44 25,5 C 30,1 C 21,1 C 43 % 1017,6 hPa 0,0 l/m 6,1 km/h (2 Bft) W 270 12,0 C 25,5 C 7,0 km/h (2 Bft)
19.07.2019 17:42 25,4 C 29,7 C 21,1 C 43 % 1017,6 hPa 0,0 l/m 7,4 km/h (2 Bft) S-SW 202 11,9 C 25,2 C 9,7 km/h (2 Bft)
19.07.2019 17:40 25,4 C 30,0 C 21,1 C 43 % 1017,6 hPa 0,0 l/m 7,7 km/h (2 Bft) W-NW 292 11,9 C 25,1 C 10,8 km/h (2 Bft)
19.07.2019 17:38 25,5 C 30,0 C 21,1 C 43 % 1017,6 hPa 0,0 l/m 7,7 km/h (2 Bft) SW 225 12,0 C 25,2 C 10,8 km/h (2 Bft)
19.07.2019 17:36 25,4 C 29,3 C 21,1 C 43 % 1017,6 hPa 0,0 l/m 7,7 km/h (2 Bft) W-SW 247 11,9 C 25,1 C 10,2 km/h (2 Bft)
19.07.2019 17:34 25,3 C 29,4 C 21,1 C 43 % 1017,6 hPa 0,0 l/m 8,4 km/h (2 Bft) W-NW 292 11,8 C 24,8 C 13,3 km/h (3 Bft)
19.07.2019 17:32 25,4 C 30,2 C 21,0 C 43 % 1017,6 hPa 0,0 l/m 8,5 km/h (2 Bft) W-NW 292 11,9 C 24,9 C 13,3 km/h (3 Bft)
19.07.2019 17:30 25,4 C 29,7 C 21,0 C 43 % 1017,6 hPa 0,0 l/m 8,0 km/h (2 Bft) W 270 11,9 C 25,0 C 16,2 km/h (3 Bft)
19.07.2019 17:28 25,3 C 29,4 C 21,0 C 43 % 1017,6 hPa 0,0 l/m 9,5 km/h (2 Bft) W-NW 292 11,8 C 24,6 C 16,2 km/h (3 Bft)
19.07.2019 17:26 25,3 C 29,3 C 21,0 C 43 % 1017,4 hPa 0,0 l/m 9,7 km/h (2 Bft) W 270 11,8 C 24,6 C 11,6 km/h (2 Bft)
19.07.2019 17:24 25,3 C 29,3 C 21,0 C 43 % 1017,4 hPa 0,0 l/m 9,5 km/h (2 Bft) W-NW 292 11,8 C 24,6 C 14,1 km/h (3 Bft)
19.07.2019 17:22 25,3 C 29,7 C 21,0 C 43 % 1017,4 hPa 0,0 l/m 9,2 km/h (2 Bft) W-NW 292 11,8 C 24,7 C 14,1 km/h (3 Bft)
19.07.2019 17:20 25,3 C 29,1 C 21,0 C 43 % 1017,4 hPa 0,0 l/m 9,5 km/h (2 Bft) W-SW 247 11,8 C 24,6 C 13,9 km/h (3 Bft)
19.07.2019 17:18 25,4 C 29,3 C 21,0 C 44 % 1017,4 hPa 0,0 l/m 9,8 km/h (2 Bft) W-NW 292 12,2 C 24,6 C 13,9 km/h (3 Bft)
19.07.2019 17:16 25,4 C 30,1 C 21,0 C 44 % 1017,4 hPa 0,0 l/m 9,3 km/h (2 Bft) W-NW 292 12,2 C 24,7 C 13,5 km/h (3 Bft)
19.07.2019 17:14 25,4 C 30,3 C 20,9 C 45 % 1017,4 hPa 0,0 l/m 10,1 km/h (2 Bft) W-NW 292 12,6 C 24,6 C 12,7 km/h (3 Bft)
19.07.2019 17:12 25,4 C 30,5 C 20,9 C 45 % 1017,4 hPa 0,0 l/m 10,8 km/h (2 Bft) W-NW 292 12,6 C 24,5 C 14,3 km/h (3 Bft)
19.07.2019 17:10 25,3 C 30,1 C 20,9 C 44 % 1017,4 hPa 0,0 l/m 11,4 km/h (2 Bft) W 270 12,2 C 24,2 C 15,8 km/h (3 Bft)
19.07.2019 17:08 25,6 C 30,7 C 20,9 C 45 % 1017,4 hPa 0,0 l/m 11,9 km/h (2 Bft) W-NW 292 12,8 C 24,5 C 15,8 km/h (3 Bft)
19.07.2019 17:06 25,4 C 30,3 C 21,0 C 45 % 1017,2 hPa 0,0 l/m 12,1 km/h (2 Bft) NW 315 12,6 C 24,2 C 17,2 km/h (3 Bft)
19.07.2019 17:04 25,2 C 29,9 C 21,0 C 44 % 1017,2 hPa 0,0 l/m 12,4 km/h (3 Bft) O-SO 112 12,1 C 24,0 C 22,0 km/h (4 Bft)
19.07.2019 17:02 25,3 C 30,0 C 21,0 C 45 % 1017,2 hPa 0,0 l/m 11,4 km/h (2 Bft) W-NW 292 12,5 C 24,2 C 22,0 km/h (4 Bft)
19.07.2019 17:00 25,2 C 29,7 C 21,0 C 45 % 1017,2 hPa 0,0 l/m 10,6 km/h (2 Bft) NW 315 12,4 C 24,3 C 19,1 km/h (3 Bft)
19.07.2019 16:58 25,1 C 30,0 C 20,9 C 46 % 1017,2 hPa 0,0 l/m 10,0 km/h (2 Bft) W-NW 292 12,7 C 24,3 C 20,1 km/h (4 Bft)
19.07.2019 16:56 25,2 C 30,6 C 20,9 C 46 % 1017,2 hPa 0,0 l/m 9,7 km/h (2 Bft) W-NW 292 12,7 C 24,4 C 20,1 km/h (4 Bft)
19.07.2019 16:54 25,2 C 30,7 C 20,9 C 47 % 1017,2 hPa 0,0 l/m 9,5 km/h (2 Bft) W-NW 292 13,1 C 24,5 C 18,0 km/h (3 Bft)
19.07.2019 16:52 24,9 C 30,4 C 20,9 C 47 % 1017,2 hPa 0,0 l/m 9,7 km/h (2 Bft) W-NW 292 12,8 C 24,1 C 14,9 km/h (3 Bft)
19.07.2019 16:50 24,8 C 30,0 C 20,9 C 47 % 1017,2 hPa 0,0 l/m 11,3 km/h (2 Bft) W-NW 292 12,7 C 23,7 C 13,1 km/h (3 Bft)
19.07.2019 16:48 24,7 C 29,7 C 20,9 C 47 % 1017,2 hPa 0,0 l/m 11,9 km/h (2 Bft) W-NW 292 12,6 C 23,5 C 21,6 km/h (4 Bft)
19.07.2019 16:46 24,5 C 29,5 C 20,9 C 47 % 1017,1 hPa 0,0 l/m 11,4 km/h (2 Bft) W-NW 292 12,4 C 23,3 C 21,6 km/h (4 Bft)
19.07.2019 16:44 24,4 C 28,4 C 20,9 C 47 % 1017,1 hPa 0,0 l/m 11,3 km/h (2 Bft) W-NW 292 12,3 C 23,2 C 20,1 km/h (4 Bft)
19.07.2019 16:42 24,1 C 26,5 C 20,8 C 47 % 1017,1 hPa 0,0 l/m 11,4 km/h (2 Bft) W-NW 292 12,1 C 22,9 C 24,5 km/h (4 Bft)
19.07.2019 16:40 24,0 C 25,2 C 20,8 C 47 % 1017,1 hPa 0,0 l/m 10,5 km/h (2 Bft) W 270 12,0 C 22,9 C 24,5 km/h (4 Bft)
19.07.2019 16:38 24,0 C 25,0 C 20,8 C 47 % 1017,1 hPa 0,0 l/m 8,0 km/h (2 Bft) W-NW 292 12,0 C 23,6 C 13,7 km/h (3 Bft)
19.07.2019 16:36 24,1 C 25,0 C 20,8 C 47 % 1017,1 hPa 0,0 l/m 6,9 km/h (2 Bft) W-SW 247 12,1 C 24,0 C 17,8 km/h (3 Bft)
19.07.2019 16:34 24,2 C 25,7 C 20,8 C 48 % 1017,1 hPa 0,0 l/m 7,1 km/h (2 Bft) W-NW 292 12,5 C 24,0 C 17,8 km/h (3 Bft)
19.07.2019 16:32 24,4 C 26,4 C 20,8 C 48 % 1017,1 hPa 0,0 l/m 6,4 km/h (2 Bft) NW 315 12,7 C 24,4 C 13,1 km/h (3 Bft)
19.07.2019 16:30 24,6 C 27,3 C 20,7 C 48 % 1017,1 hPa 0,0 l/m 6,4 km/h (2 Bft) SW 225 12,8 C 24,6 C 13,1 km/h (3 Bft)
19.07.2019 16:28 24,6 C 26,9 C 20,7 C 48 % 1017,1 hPa 0,0 l/m 7,4 km/h (2 Bft) N 360 12,8 C 24,3 C 3,9 km/h (1 Bft)
19.07.2019 16:26 24,5 C 26,9 C 20,7 C 48 % 1017,4 hPa 0,0 l/m 9,2 km/h (2 Bft) W-SW 247 12,8 C 23,8 C 9,5 km/h (2 Bft)
19.07.2019 16:24 24,6 C 27,3 C 20,7 C 48 % 1017,4 hPa 0,0 l/m 8,9 km/h (2 Bft) NW 315 12,8 C 24,0 C 13,7 km/h (3 Bft)
19.07.2019 16:22 24,6 C 27,7 C 20,7 C 49 % 1017,4 hPa 0,0 l/m 8,7 km/h (2 Bft) NW 315 13,2 C 24,0 C 13,7 km/h (3 Bft)
19.07.2019 16:20 24,8 C 28,3 C 20,6 C 50 % 1017,4 hPa 0,0 l/m 7,7 km/h (2 Bft) W 270 13,7 C 24,5 C 19,1 km/h (3 Bft)
19.07.2019 16:18 25,4 C 31,5 C 20,6 C 50 % 1017,4 hPa 0,0 l/m 7,1 km/h (2 Bft) W-NW 292 14,2 C 25,2 C 19,1 km/h (3 Bft)
19.07.2019 16:16 25,6 C 33,8 C 20,6 C 51 % 1017,4 hPa 0,0 l/m 4,5 km/h (1 Bft) W-NW 292 14,7 C 25,6 C 7,3 km/h (2 Bft)
19.07.2019 16:14 25,3 C 33,3 C 20,5 C 51 % 1017,4 hPa 0,0 l/m 4,2 km/h (1 Bft) N-NW 337 14,4 C 25,3 C 9,5 km/h (2 Bft)
19.07.2019 16:12 25,0 C 32,2 C 20,5 C 51 % 1017,4 hPa 0,0 l/m 3,2 km/h (1 Bft) SW 225 14,1 C 25,0 C 9,5 km/h (2 Bft)
19.07.2019 16:10 25,1 C 32,4 C 20,5 C 51 % 1017,4 hPa 0,0 l/m 2,7 km/h (1 Bft) S-SW 202 14,2 C 25,1 C 10,4 km/h (2 Bft)
19.07.2019 16:08 24,7 C 33,1 C 20,4 C 52 % 1017,4 hPa 0,0 l/m 2,4 km/h (1 Bft) SW 225 14,2 C 24,7 C 10,4 km/h (2 Bft)
19.07.2019 16:06 24,3 C 31,0 C 20,4 C 51 % 1014,9 hPa 0,0 l/m 1,9 km/h (1 Bft) O-NO 67 13,5 C 24,3 C 3,7 km/h (1 Bft)
19.07.2019 16:04 24,5 C 30,9 C 20,4 C 52 % 1014,9 hPa 0,0 l/m 1,9 km/h (1 Bft) SO 135 14,0 C 24,5 C 2,5 km/h (1 Bft)
19.07.2019 16:02 24,4 C 31,7 C 20,4 C 52 % 1014,9 hPa 0,0 l/m 2,7 km/h (1 Bft) SO 135 13,9 C 24,4 C 5,6 km/h (1 Bft)
19.07.2019 16:00 24,3 C 32,6 C 20,3 C 52 % 1014,9 hPa 0,0 l/m 3,5 km/h (1 Bft) W-NW 292 13,8 C 24,3 C 5,6 km/h (1 Bft)
19.07.2019 15:58 23,9 C 31,2 C 20,3 C 53 % 1014,9 hPa 0,0 l/m 3,9 km/h (1 Bft) O-SO 112 13,7 C 23,9 C 3,9 km/h (1 Bft)
19.07.2019 15:56 23,9 C 30,8 C 20,3 C 53 % 1014,9 hPa 0,0 l/m 3,9 km/h (1 Bft) O 90 13,7 C 23,9 C 3,9 km/h (1 Bft)
19.07.2019 15:54 23,9 C 31,4 C 20,2 C 54 % 1014,9 hPa 0,0 l/m 3,9 km/h (1 Bft) O 90 14,0 C 23,9 C 6,0 km/h (2 Bft)
19.07.2019 15:52 23,6 C 28,2 C 20,2 C 55 % 1014,9 hPa 0,0 l/m 3,7 km/h (1 Bft) S-SO 157 14,0 C 23,6 C 8,1 km/h (2 Bft)
19.07.2019 15:50 23,6 C 27,9 C 20,2 C 56 % 1014,9 hPa 0,0 l/m 2,7 km/h (1 Bft) O-SO 112 14,3 C 23,6 C 8,5 km/h (2 Bft)
19.07.2019 15:48 23,7 C 29,2 C 20,2 C 57 % 1014,9 hPa 0,0 l/m 1,9 km/h (1 Bft) O 90 14,7 C 23,7 C 8,5 km/h (2 Bft)
19.07.2019 15:46 23,8 C 30,7 C 20,1 C 57 % 1015,0 hPa 0,0 l/m 1,3 km/h (1 Bft) SO 135 14,8 C 23,8 C 3,3 km/h (1 Bft)
19.07.2019 15:44 23,7 C 32,0 C 20,1 C 58 % 1015,0 hPa 0,0 l/m 1,1 km/h (1 Bft) S-SO 157 14,9 C 23,7 C 3,1 km/h (1 Bft)
19.07.2019 15:42 23,3 C 31,3 C 20,1 C 59 % 1015,0 hPa 0,0 l/m 1,1 km/h (1 Bft) O-NO 67 14,8 C 23,3 C 2,3 km/h (1 Bft)
19.07.2019 15:40 23,1 C 30,0 C 20,1 C 60 % 1015,0 hPa 0,0 l/m 0,8 km/h (0 Bft) S-SW 202 14,9 C 23,1 C 5,6 km/h (1 Bft)
19.07.2019 15:38 22,9 C 29,5 C 20,1 C 62 % 1015,0 hPa 0,0 l/m 1,0 km/h (0 Bft) S-SO 157 15,2 C 22,9 C 5,6 km/h (1 Bft)
19.07.2019 15:36 22,7 C 28,7 C 20,1 C 62 % 1015,0 hPa 0,0 l/m 1,0 km/h (0 Bft) SO 135 15,0 C 22,7 C 3,1 km/h (1 Bft)
19.07.2019 15:34 22,5 C 28,1 C 20,1 C 63 % 1015,0 hPa 0,0 l/m 1,3 km/h (1 Bft) S-SW 202 15,1 C 22,5 C 2,1 km/h (1 Bft)
19.07.2019 15:32 22,2 C 27,3 C 20,1 C 63 % 1015,0 hPa 0,0 l/m 1,3 km/h (1 Bft) SW 225 14,8 C 22,2 C 2,1 km/h (1 Bft)
19.07.2019 15:30 22,0 C 26,1 C 20,1 C 63 % 1015,0 hPa 0,0 l/m 1,3 km/h (1 Bft) SW 225 14,6 C 22,0 C 4,1 km/h (1 Bft)
19.07.2019 15:28 21,8 C 24,6 C 20,0 C 63 % 1015,0 hPa 0,0 l/m 1,0 km/h (0 Bft) S-SO 157 14,4 C 21,8 C 4,1 km/h (1 Bft)
19.07.2019 15:26 21,5 C 24,5 C 20,0 C 64 % 1015,2 hPa 0,0 l/m 0,5 km/h (0 Bft) S-SO 157 14,4 C 21,5 C 3,9 km/h (1 Bft)
19.07.2019 15:24 21,4 C 25,9 C 20,0 C 66 % 1015,2 hPa 0,0 l/m 0,2 km/h (0 Bft) SO 135 14,8 C 21,4 C 3,9 km/h (1 Bft)
19.07.2019 15:22 20,8 C 24,4 C 20,0 C 66 % 1015,2 hPa 0,0 l/m 0,2 km/h (0 Bft) W 270 14,2 C 20,8 C 0,0 km/h (0 Bft)
19.07.2019 15:20 20,7 C 23,9 C 20,0 C 66 % 1015,2 hPa 0,0 l/m 0,6 km/h (0 Bft) SW 225 14,1 C 20,7 C 0,0 km/h (0 Bft)
19.07.2019 15:18 20,8 C 24,4 C 20,0 C 66 % 1015,2 hPa 0,0 l/m 1,4 km/h (1 Bft) S 180 14,2 C 20,8 C 0,0 km/h (0 Bft)
19.07.2019 15:16 20,5 C 24,3 C 20,0 C 65 % 1015,2 hPa 0,0 l/m 2,1 km/h (1 Bft) W 270 13,7 C 20,5 C 0,0 km/h (0 Bft)
19.07.2019 15:14 20,2 C 23,6 C 20,0 C 63 % 1015,2 hPa 0,0 l/m 2,4 km/h (1 Bft) SW 225 12,9 C 20,2 C 1,9 km/h (1 Bft)
19.07.2019 15:12 19,8 C 23,0 C 20,0 C 63 % 1015,2 hPa 0,0 l/m 2,6 km/h (1 Bft) NO 45 12,5 C 19,8 C 3,3 km/h (1 Bft)
19.07.2019 15:10 19,8 C 22,4 C 20,0 C 62 % 1015,2 hPa 0,0 l/m 2,6 km/h (1 Bft) O-NO 67 12,3 C 19,8 C 6,2 km/h (2 Bft)
19.07.2019 15:08 20,0 C 22,2 C 20,0 C 61 % 1015,2 hPa 0,0 l/m 3,4 km/h (1 Bft) O-NO 67 12,2 C 20,0 C 6,2 km/h (2 Bft)
19.07.2019 15:06 20,5 C 21,8 C 20,0 C 59 % 1014,8 hPa 0,0 l/m 6,0 km/h (2 Bft) O 90 12,2 C 20,5 C 4,4 km/h (1 Bft)
19.07.2019 15:04 21,0 C 21,4 C 20,0 C 55 % 1014,8 hPa 0,2 l/m 8,0 km/h (2 Bft) O-NO 67 11,6 C 20,4 C 4,6 km/h (1 Bft)
19.07.2019 15:02 21,4 C 20,5 C 20,0 C 53 % 1014,8 hPa 0,2 l/m 9,3 km/h (2 Bft) O-NO 67 11,4 C 20,4 C 28,4 km/h (4 Bft)
19.07.2019 15:00 21,4 C 19,9 C 19,9 C 52 % 1014,8 hPa 0,0 l/m 10,9 km/h (2 Bft) S 180 11,1 C 19,9 C 11,6 km/h (2 Bft)
19.07.2019 14:58 22,0 C 20,1 C 19,9 C 51 % 1014,8 hPa 0,0 l/m 11,7 km/h (2 Bft) S-SO 157 11,4 C 20,4 C 22,4 km/h (4 Bft)
19.07.2019 14:56 22,8 C 21,6 C 19,9 C 49 % 1014,8 hPa 0,0 l/m 11,1 km/h (2 Bft) S 180 11,5 C 21,5 C 28,4 km/h (4 Bft)
19.07.2019 14:54 23,3 C 23,1 C 19,9 C 48 % 1014,8 hPa 0,0 l/m 9,7 km/h (2 Bft) SW 225 11,7 C 22,4 C 28,4 km/h (4 Bft)
19.07.2019 14:52 23,4 C 23,2 C 19,9 C 48 % 1014,8 hPa 0,0 l/m 10,3 km/h (2 Bft) W 270 11,8 C 22,3 C 26,5 km/h (4 Bft)
19.07.2019 14:50 23,5 C 23,3 C 19,9 C 48 % 1014,8 hPa 0,0 l/m 10,5 km/h (2 Bft) N 360 11,8 C 22,4 C 16,6 km/h (3 Bft)
19.07.2019 14:48 23,5 C 23,5 C 19,9 C 47 % 1014,8 hPa 0,0 l/m 10,9 km/h (2 Bft) W 270 11,5 C 22,3 C 16,6 km/h (3 Bft)
19.07.2019 14:46 23,6 C 23,7 C 19,9 C 48 % 1014,7 hPa 0,0 l/m 10,6 km/h (2 Bft) NW 315 11,9 C 22,5 C 12,9 km/h (3 Bft)
19.07.2019 14:44 23,7 C 23,9 C 19,9 C 47 % 1014,7 hPa 0,0 l/m 10,9 km/h (2 Bft) S-SW 202 11,7 C 22,5 C 25,9 km/h (4 Bft)
19.07.2019 14:42 23,9 C 24,6 C 19,9 C 47 % 1014,7 hPa 0,0 l/m 10,6 km/h (2 Bft) W 270 11,9 C 22,8 C 25,9 km/h (4 Bft)
19.07.2019 14:40 24,0 C 25,2 C 19,9 C 47 % 1014,7 hPa 0,0 l/m 10,6 km/h (2 Bft) W-SW 247 12,0 C 22,9 C 16,0 km/h (3 Bft)
19.07.2019 14:38 24,2 C 26,0 C 19,9 C 47 % 1014,7 hPa 0,0 l/m 10,0 km/h (2 Bft) W-NW 292 12,2 C 23,3 C 16,0 km/h (3 Bft)
19.07.2019 14:36 24,4 C 28,0 C 19,9 C 47 % 1014,7 hPa 0,0 l/m 9,2 km/h (2 Bft) SW 225 12,3 C 23,7 C 15,6 km/h (3 Bft)
19.07.2019 14:34 24,6 C 29,9 C 19,9 C 47 % 1014,7 hPa 0,0 l/m 9,0 km/h (2 Bft) W 270 12,5 C 23,9 C 13,3 km/h (3 Bft)
19.07.2019 14:32 24,5 C 30,2 C 19,8 C 46 % 1014,7 hPa 0,0 l/m 8,9 km/h (2 Bft) W 270 12,1 C 23,9 C 22,4 km/h (4 Bft)
19.07.2019 14:30 24,4 C 29,8 C 19,8 C 47 % 1014,7 hPa 0,0 l/m 8,9 km/h (2 Bft) W-NW 292 12,3 C 23,7 C 22,4 km/h (4 Bft)
19.07.2019 14:28 24,2 C 27,2 C 19,8 C 46 % 1014,7 hPa 0,0 l/m 8,5 km/h (2 Bft) W 270 11,8 C 23,6 C 7,3 km/h (2 Bft)
19.07.2019 14:26 24,1 C 25,5 C 19,8 C 45 % 1014,8 hPa 0,0 l/m 8,4 km/h (2 Bft) SW 225 11,4 C 23,6 C 9,8 km/h (2 Bft)
19.07.2019 14:24 24,1 C 24,9 C 19,8 C 45 % 1014,8 hPa 0,0 l/m 8,4 km/h (2 Bft) SW 225 11,4 C 23,6 C 12,0 km/h (2 Bft)
19.07.2019 14:22 24,3 C 25,0 C 19,8 C 44 % 1014,8 hPa 0,0 l/m 7,6 km/h (2 Bft) W 270 11,3 C 24,0 C 15,3 km/h (3 Bft)
19.07.2019 14:20 24,5 C 25,5 C 19,8 C 44 % 1014,8 hPa 0,0 l/m 6,1 km/h (2 Bft) W-NW 292 11,4 C 24,5 C 15,3 km/h (3 Bft)
19.07.2019 14:18 24,7 C 25,8 C 19,8 C 44 % 1014,8 hPa 0,0 l/m 5,3 km/h (1 Bft) W 270 11,6 C 24,7 C 14,7 km/h (3 Bft)
19.07.2019 14:16 24,8 C 26,5 C 19,8 C 44 % 1014,8 hPa 0,0 l/m 5,8 km/h (2 Bft) SW 225 11,7 C 24,8 C 12,2 km/h (2 Bft)
19.07.2019 14:14 24,9 C 27,0 C 19,7 C 44 % 1014,8 hPa 0,0 l/m 6,4 km/h (2 Bft) W-NW 292 11,8 C 24,9 C 12,2 km/h (2 Bft)
19.07.2019 14:12 25,0 C 27,1 C 19,6 C 43 % 1014,8 hPa 0,0 l/m 6,6 km/h (2 Bft) S-SO 157 11,5 C 25,0 C 9,8 km/h (2 Bft)
19.07.2019 14:10 25,0 C 27,6 C 19,6 C 43 % 1014,8 hPa 0,0 l/m 6,3 km/h (2 Bft) S-SO 157 11,5 C 25,0 C 9,8 km/h (2 Bft)
19.07.2019 14:08 25,1 C 27,9 C 19,6 C 43 % 1014,8 hPa 0,0 l/m 5,5 km/h (1 Bft) S 180 11,6 C 25,1 C 15,3 km/h (3 Bft)
19.07.2019 14:06 25,2 C 30,1 C 19,6 C 43 % 1014,8 hPa 0,0 l/m 4,3 km/h (1 Bft) NW 315 11,7 C 25,2 C 15,3 km/h (3 Bft)
19.07.2019 14:04 25,4 C 32,9 C 19,6 C 44 % 1014,8 hPa 0,0 l/m 2,6 km/h (1 Bft) NW 315 12,2 C 25,4 C 9,8 km/h (2 Bft)
19.07.2019 14:02 25,6 C 35,7 C 19,6 C 44 % 1014,8 hPa 0,0 l/m 1,6 km/h (1 Bft) W-SW 247 12,4 C 25,6 C 9,8 km/h (2 Bft)
19.07.2019 14:00 25,7 C 38,0 C 19,6 C 44 % 1014,8 hPa 0,0 l/m 1,3 km/h (1 Bft) SW 225 12,5 C 25,7 C 6,4 km/h (2 Bft)
19.07.2019 13:58 25,5 C 37,3 C 19,5 C 44 % 1014,8 hPa 0,0 l/m 1,3 km/h (1 Bft) NO 45 12,3 C 25,5 C 5,2 km/h (1 Bft)
19.07.2019 13:56 25,1 C 36,3 C 19,5 C 44 % 1014,8 hPa 0,0 l/m 1,4 km/h (1 Bft) N-NO 22 12,0 C 25,1 C 5,2 km/h (1 Bft)
19.07.2019 13:54 25,2 C 35,2 C 19,5 C 45 % 1014,8 hPa 0,0 l/m 1,3 km/h (1 Bft) O-NO 67 12,4 C 25,2 C 4,1 km/h (1 Bft)
19.07.2019 13:52 25,2 C 32,6 C 19,5 C 45 % 1014,8 hPa 0,0 l/m 1,1 km/h (1 Bft) NO 45 12,4 C 25,2 C 1,9 km/h (1 Bft)
19.07.2019 13:50 24,8 C 30,0 C 19,5 C 44 % 1014,8 hPa 0,0 l/m 1,1 km/h (1 Bft) NW 315 11,7 C 24,8 C 3,1 km/h (1 Bft)
19.07.2019 13:48 24,9 C 28,7 C 19,5 C 45 % 1014,8 hPa 0,0 l/m 1,4 km/h (1 Bft) NW 315 12,1 C 24,9 C 3,5 km/h (1 Bft)
19.07.2019 13:46 24,8 C 29,2 C 19,5 C 45 % 1015,1 hPa 0,0 l/m 1,3 km/h (1 Bft) N-NO 22 12,0 C 24,8 C 3,5 km/h (1 Bft)
19.07.2019 13:44 24,8 C 29,9 C 19,5 C 44 % 1015,1 hPa 0,0 l/m 1,4 km/h (1 Bft) O-NO 67 11,7 C 24,8 C 4,4 km/h (1 Bft)
19.07.2019 13:42 24,9 C 31,1 C 19,5 C 44 % 1015,1 hPa 0,0 l/m 2,3 km/h (1 Bft) O-NO 67 11,8 C 24,9 C 4,4 km/h (1 Bft)
19.07.2019 13:40 25,1 C 33,0 C 19,5 C 44 % 1015,1 hPa 0,0 l/m 2,7 km/h (1 Bft) N-NW 337 12,0 C 25,1 C 2,5 km/h (1 Bft)
19.07.2019 13:38 24,9 C 34,2 C 19,5 C 44 % 1015,1 hPa 0,0 l/m 2,6 km/h (1 Bft) NW 315 11,8 C 24,9 C 0,0 km/h (0 Bft)
19.07.2019 13:36 24,7 C 34,4 C 19,4 C 45 % 1015,1 hPa 0,0 l/m 2,9 km/h (1 Bft) O-NO 67 12,0 C 24,7 C 3,1 km/h (1 Bft)
19.07.2019 13:34 24,5 C 32,7 C 19,4 C 44 % 1015,1 hPa 0,0 l/m 3,1 km/h (1 Bft) O-SO 112 11,4 C 24,5 C 6,0 km/h (2 Bft)
19.07.2019 13:32 24,4 C 31,1 C 19,4 C 45 % 1015,1 hPa 0,0 l/m 2,9 km/h (1 Bft) O-NO 67 11,7 C 24,4 C 8,3 km/h (2 Bft)
19.07.2019 13:30 24,2 C 28,4 C 19,4 C 46 % 1015,1 hPa 0,0 l/m 2,3 km/h (1 Bft) O-NO 67 11,8 C 24,2 C 8,3 km/h (2 Bft)
19.07.2019 13:28 24,1 C 26,3 C 19,3 C 45 % 1015,1 hPa 0,0 l/m 1,9 km/h (1 Bft) NO 45 11,4 C 24,1 C 2,5 km/h (1 Bft)
19.07.2019 13:26 24,3 C 25,9 C 19,3 C 44 % 1015,1 hPa 0,0 l/m 3,5 km/h (1 Bft) O-NO 67 11,3 C 24,3 C 2,5 km/h (1 Bft)
19.07.2019 13:24 24,4 C 25,4 C 19,3 C 44 % 1015,1 hPa 0,0 l/m 4,2 km/h (1 Bft) W 270 11,3 C 24,4 C 4,1 km/h (1 Bft)
19.07.2019 13:22 24,4 C 25,5 C 19,2 C 44 % 1015,1 hPa 0,0 l/m 4,3 km/h (1 Bft) SO 135 11,3 C 24,4 C 4,1 km/h (1 Bft)
19.07.2019 13:20 24,6 C 26,0 C 19,2 C 44 % 1015,1 hPa 0,0 l/m 5,0 km/h (1 Bft) S-SO 157 11,5 C 24,6 C 3,9 km/h (1 Bft)
19.07.2019 13:18 24,8 C 27,4 C 19,2 C 44 % 1015,1 hPa 0,0 l/m 5,3 km/h (1 Bft) W-NW 292 11,7 C 24,8 C 13,5 km/h (3 Bft)
19.07.2019 13:16 25,3 C 31,7 C 19,2 C 45 % 1015,1 hPa 0,0 l/m 4,3 km/h (1 Bft) NW 315 12,5 C 25,3 C 13,5 km/h (3 Bft)
19.07.2019 13:14 25,6 C 34,2 C 19,1 C 45 % 1015,1 hPa 0,0 l/m 3,1 km/h (1 Bft) S-SW 202 12,8 C 25,6 C 8,1 km/h (2 Bft)
19.07.2019 13:12 25,6 C 34,7 C 19,1 C 45 % 1015,1 hPa 0,0 l/m 3,4 km/h (1 Bft) O-SO 112 12,8 C 25,6 C 6,6 km/h (2 Bft)
19.07.2019 13:10 25,5 C 35,2 C 19,1 C 44 % 1015,1 hPa 0,0 l/m 4,0 km/h (1 Bft) S-SO 157 12,3 C 25,5 C 6,6 km/h (2 Bft)
19.07.2019 13:08 25,2 C 35,2 C 19,1 C 44 % 1015,1 hPa 0,0 l/m 4,3 km/h (1 Bft) S-SO 157 12,1 C 25,2 C 6,4 km/h (2 Bft)
19.07.2019 13:06 25,2 C 33,7 C 19,0 C 44 % 1015,4 hPa 0,0 l/m 5,0 km/h (1 Bft) O 90 12,1 C 25,2 C 5,8 km/h (2 Bft)
19.07.2019 13:04 25,3 C 33,0 C 19,0 C 45 % 1015,4 hPa 0,0 l/m 5,0 km/h (1 Bft) S-SO 157 12,5 C 25,3 C 5,8 km/h (2 Bft)
19.07.2019 13:02 25,1 C 31,9 C 19,0 C 45 % 1015,4 hPa 0,0 l/m 4,5 km/h (1 Bft) S 180 12,3 C 25,1 C 8,5 km/h (2 Bft)
19.07.2019 13:00 25,1 C 31,3 C 19,0 C 45 % 1015,4 hPa 0,0 l/m 4,7 km/h (1 Bft) SW 225 12,3 C 25,1 C 10,6 km/h (2 Bft)
19.07.2019 12:58 25,5 C 34,1 C 19,0 C 46 % 1015,4 hPa 0,0 l/m 3,5 km/h (1 Bft) SW 225 13,0 C 25,5 C 10,6 km/h (2 Bft)
19.07.2019 12:56 25,5 C 34,3 C 18,9 C 45 % 1015,4 hPa 0,0 l/m 3,1 km/h (1 Bft) SW 225 12,7 C 25,5 C 7,3 km/h (2 Bft)
19.07.2019 12:54 25,4 C 34,7 C 18,9 C 46 % 1015,4 hPa 0,0 l/m 3,2 km/h (1 Bft) O 90 12,9 C 25,4 C 5,6 km/h (1 Bft)
19.07.2019 12:52 25,3 C 34,6 C 18,9 C 46 % 1015,4 hPa 0,0 l/m 3,9 km/h (1 Bft) O-SO 112 12,8 C 25,3 C 8,5 km/h (2 Bft)
19.07.2019 12:50 25,2 C 34,0 C 18,9 C 45 % 1015,4 hPa 0,0 l/m 4,8 km/h (1 Bft) W 270 12,4 C 25,2 C 8,9 km/h (2 Bft)
19.07.2019 12:48 25,2 C 33,5 C 18,8 C 46 % 1015,4 hPa 0,0 l/m 4,3 km/h (1 Bft) NW 315 12,7 C 25,2 C 8,9 km/h (2 Bft)
19.07.2019 12:46 25,2 C 33,1 C 18,8 C 45 % 1015,7 hPa 0,0 l/m 4,3 km/h (1 Bft) O-SO 112 12,4 C 25,2 C 6,4 km/h (2 Bft)
19.07.2019 12:44 25,2 C 32,9 C 18,8 C 46 % 1015,7 hPa 0,0 l/m 4,7 km/h (1 Bft) W 270 12,7 C 25,2 C 11,0 km/h (2 Bft)
19.07.2019 12:42 25,1 C 32,2 C 18,8 C 46 % 1015,7 hPa 0,0 l/m 4,7 km/h (1 Bft) W-NW 292 12,7 C 25,1 C 11,0 km/h (2 Bft)
19.07.2019 12:40 24,8 C 30,9 C 18,8 C 45 % 1015,7 hPa 0,0 l/m 4,3 km/h (1 Bft) S-SW 202 12,0 C 24,8 C 8,7 km/h (2 Bft)
19.07.2019 12:38 25,0 C 31,4 C 18,8 C 44 % 1015,7 hPa 0,0 l/m 5,0 km/h (1 Bft) S-SW 202 11,9 C 25,0 C 4,1 km/h (1 Bft)
19.07.2019 12:36 25,2 C 32,9 C 18,7 C 45 % 1015,7 hPa 0,0 l/m 6,6 km/h (2 Bft) S 180 12,4 C 25,2 C 4,1 km/h (1 Bft)
19.07.2019 12:34 25,1 C 32,4 C 18,7 C 45 % 1015,7 hPa 0,0 l/m 6,6 km/h (2 Bft) SO 135 12,3 C 25,1 C 3,1 km/h (1 Bft)
19.07.2019 12:32 25,0 C 32,0 C 18,7 C 44 % 1015,7 hPa 0,0 l/m 6,9 km/h (2 Bft) W-NW 292 11,9 C 24,9 C 15,1 km/h (3 Bft)
19.07.2019 12:30 25,0 C 32,0 C 18,7 C 45 % 1015,7 hPa 0,0 l/m 6,9 km/h (2 Bft) N-NW 337 12,2 C 24,9 C 15,1 km/h (3 Bft)
19.07.2019 12:28 25,1 C 32,9 C 18,7 C 45 % 1015,7 hPa 0,0 l/m 7,1 km/h (2 Bft) NO 45 12,3 C 24,9 C 12,4 km/h (3 Bft)
19.07.2019 12:26 25,2 C 32,6 C 18,6 C 45 % 1016,1 hPa 0,0 l/m 5,8 km/h (2 Bft) NW 315 12,4 C 25,2 C 12,4 km/h (3 Bft)
19.07.2019 12:24 25,5 C 33,1 C 18,6 C 46 % 1016,1 hPa 0,0 l/m 6,1 km/h (2 Bft) NW 315 13,0 C 25,5 C 5,8 km/h (2 Bft)
19.07.2019 12:22 25,6 C 33,2 C 18,6 C 47 % 1016,1 hPa 0,0 l/m 6,4 km/h (2 Bft) SW 225 13,4 C 25,6 C 12,2 km/h (2 Bft)
19.07.2019 12:20 25,3 C 31,9 C 18,6 C 46 % 1016,1 hPa 0,0 l/m 6,9 km/h (2 Bft) W 270 12,8 C 25,2 C 13,7 km/h (3 Bft)
19.07.2019 12:18 25,5 C 32,0 C 18,6 C 45 % 1016,1 hPa 0,0 l/m 7,6 km/h (2 Bft) W 270 12,7 C 25,2 C 13,7 km/h (3 Bft)
19.07.2019 12:16 25,4 C 31,6 C 18,6 C 45 % 1016,1 hPa 0,0 l/m 9,0 km/h (2 Bft) W-NW 292 12,6 C 24,8 C 20,7 km/h (4 Bft)
19.07.2019 12:14 25,5 C 32,2 C 18,5 C 45 % 1016,1 hPa 0,0 l/m 10,6 km/h (2 Bft) W-NW 292 12,7 C 24,6 C 20,7 km/h (4 Bft)
19.07.2019 12:12 25,3 C 31,6 C 18,5 C 43 % 1016,1 hPa 0,0 l/m 11,6 km/h (2 Bft) S-SW 202 11,8 C 24,2 C 9,1 km/h (2 Bft)
19.07.2019 12:10 25,1 C 30,1 C 18,4 C 44 % 1016,1 hPa 0,0 l/m 5,0 km/h (1 Bft) W 270 12,0 C 25,1 C 5,2 km/h (1 Bft)
19.07.2019 12:08 25,1 C 30,1 C 18,4 C 44 % 1016,1 hPa 0,0 l/m 5,0 km/h (1 Bft) W 270 12,0 C 25,1 C 5,2 km/h (1 Bft)
19.07.2019 12:06 25,1 C 30,1 C 18,4 C 44 % 1016,8 hPa 0,0 l/m 5,0 km/h (1 Bft) W 270 12,0 C 25,1 C 5,2 km/h (1 Bft)
19.07.2019 12:04 25,1 C 30,1 C 18,4 C 44 % 1016,8 hPa 0,0 l/m 5,0 km/h (1 Bft) W 270 12,0 C 25,1 C 5,2 km/h (1 Bft)
19.07.2019 12:02 25,1 C 30,1 C 18,4 C 44 % 1016,8 hPa 0,0 l/m 5,0 km/h (1 Bft) W 270 12,0 C 25,1 C 15,6 km/h (3 Bft)
19.07.2019 12:00 25,0 C 29,6 C 18,4 C 44 % 1016,8 hPa 0,0 l/m 5,1 km/h (1 Bft) SW 225 11,9 C 25,0 C 15,6 km/h (3 Bft)
19.07.2019 11:58 25,0 C 28,1 C 18,4 C 45 % 1016,8 hPa 0,0 l/m 4,3 km/h (1 Bft) NW 315 12,2 C 25,0 C 8,5 km/h (2 Bft)
19.07.2019 11:56 24,9 C 28,1 C 18,4 C 45 % 1016,8 hPa 0,0 l/m 4,5 km/h (1 Bft) SW 225 12,1 C 24,9 C 8,5 km/h (2 Bft)
19.07.2019 11:54 25,2 C 30,6 C 18,4 C 45 % 1016,8 hPa 0,0 l/m 4,8 km/h (1 Bft) O-NO 67 12,4 C 25,2 C 3,9 km/h (1 Bft)
19.07.2019 11:52 25,1 C 30,2 C 18,4 C 45 % 1016,8 hPa 0,0 l/m 5,3 km/h (1 Bft) SO 135 12,3 C 25,1 C 7,3 km/h (2 Bft)
19.07.2019 11:50 25,0 C 29,9 C 18,3 C 45 % 1016,8 hPa 0,0 l/m 5,5 km/h (1 Bft) SO 135 12,2 C 25,0 C 10,2 km/h (2 Bft)
19.07.2019 11:48 24,8 C 28,2 C 18,3 C 45 % 1016,8 hPa 0,0 l/m 4,7 km/h (1 Bft) S-SW 202 12,0 C 24,8 C 10,2 km/h (2 Bft)
19.07.2019 11:46 25,1 C 29,8 C 18,3 C 45 % 1016,7 hPa 0,0 l/m 3,9 km/h (1 Bft) O-SO 112 12,3 C 25,1 C 5,8 km/h (2 Bft)
19.07.2019 11:44 25,5 C 30,7 C 18,3 C 46 % 1016,7 hPa 0,0 l/m 4,8 km/h (1 Bft) SO 135 13,0 C 25,5 C 7,1 km/h (2 Bft)
19.07.2019 11:42 25,4 C 29,8 C 18,3 C 46 % 1016,7 hPa 0,0 l/m 5,5 km/h (1 Bft) SO 135 12,9 C 25,4 C 7,1 km/h (2 Bft)
19.07.2019 11:40 25,1 C 28,7 C 18,2 C 46 % 1016,7 hPa 0,0 l/m 5,8 km/h (2 Bft) O 90 12,7 C 25,1 C 4,6 km/h (1 Bft)
19.07.2019 11:38 25,3 C 29,0 C 18,2 C 47 % 1016,7 hPa 0,0 l/m 6,9 km/h (2 Bft) S-SO 157 13,2 C 25,2 C 14,1 km/h (3 Bft)
19.07.2019 11:36 25,2 C 28,9 C 18,2 C 47 % 1016,7 hPa 0,0 l/m 7,7 km/h (2 Bft) W-NW 292 13,1 C 24,9 C 14,1 km/h (3 Bft)
19.07.2019 11:34 25,1 C 29,1 C 18,2 C 47 % 1016,7 hPa 0,0 l/m 7,7 km/h (2 Bft) W-NW 292 13,0 C 24,8 C 14,3 km/h (3 Bft)
19.07.2019 11:32 25,2 C 29,4 C 18,2 C 46 % 1016,7 hPa 0,0 l/m 6,0 km/h (2 Bft) SW 225 12,7 C 25,2 C 14,3 km/h (3 Bft)
19.07.2019 11:30 25,3 C 29,6 C 18,2 C 46 % 1016,7 hPa 0,0 l/m 4,5 km/h (1 Bft) W 270 12,8 C 25,3 C 16,2 km/h (3 Bft)
19.07.2019 11:28 25,4 C 29,6 C 18,2 C 47 % 1016,7 hPa 0,0 l/m 3,7 km/h (1 Bft) S-SO 157 13,3 C 25,4 C 16,2 km/h (3 Bft)
19.07.2019 11:26 25,3 C 29,5 C 18,1 C 48 % 1016,7 hPa 0,0 l/m 3,1 km/h (1 Bft) S-SO 157 13,5 C 25,3 C 15,1 km/h (3 Bft)
19.07.2019 11:24 25,2 C 29,2 C 18,1 C 47 % 1016,7 hPa 0,0 l/m 2,7 km/h (1 Bft) W-NW 292 13,1 C 25,2 C 15,1 km/h (3 Bft)
19.07.2019 11:22 25,0 C 29,0 C 18,1 C 47 % 1016,7 hPa 0,0 l/m 3,1 km/h (1 Bft) S-SW 202 12,9 C 25,0 C 2,5 km/h (1 Bft)
19.07.2019 11:20 24,9 C 28,9 C 18,1 C 47 % 1016,7 hPa 0,0 l/m 4,0 km/h (1 Bft) NW 315 12,8 C 24,9 C 2,7 km/h (1 Bft)
19.07.2019 11:18 24,9 C 28,5 C 18,2 C 48 % 1016,7 hPa 0,0 l/m 5,0 km/h (1 Bft) SO 135 13,1 C 24,9 C 6,8 km/h (2 Bft)
19.07.2019 11:16 24,9 C 28,7 C 18,1 C 48 % 1016,7 hPa 0,0 l/m 6,0 km/h (2 Bft) SW 225 13,1 C 24,9 C 10,2 km/h (2 Bft)
19.07.2019 11:14 24,8 C 28,7 C 18,1 C 47 % 1016,7 hPa 0,0 l/m 6,8 km/h (2 Bft) W-NW 292 12,7 C 24,7 C 10,2 km/h (2 Bft)
19.07.2019 11:12 24,6 C 28,6 C 18,1 C 46 % 1016,7 hPa 0,0 l/m 7,1 km/h (2 Bft) SO 135 12,2 C 24,4 C 12,9 km/h (3 Bft)
19.07.2019 11:10 24,6 C 28,7 C 18,1 C 46 % 1016,7 hPa 0,0 l/m 7,9 km/h (2 Bft) SO 135 12,2 C 24,2 C 12,9 km/h (3 Bft)
19.07.2019 11:08 24,4 C 28,3 C 18,1 C 46 % 1016,7 hPa 0,0 l/m 8,5 km/h (2 Bft) SO 135 12,0 C 23,8 C 9,1 km/h (2 Bft)
19.07.2019 11:06 24,2 C 27,4 C 18,0 C 46 % 1016,3 hPa 0,0 l/m 9,0 km/h (2 Bft) W 270 11,8 C 23,5 C 10,4 km/h (2 Bft)
19.07.2019 11:04 24,2 C 26,6 C 18,0 C 47 % 1016,3 hPa 0,0 l/m 9,8 km/h (2 Bft) W-SW 247 12,2 C 23,3 C 10,4 km/h (2 Bft)
19.07.2019 11:02 23,9 C 26,3 C 18,0 C 48 % 1016,3 hPa 0,0 l/m 10,0 km/h (2 Bft) SW 225 12,2 C 22,9 C 24,3 km/h (4 Bft)
19.07.2019 11:00 23,6 C 25,2 C 18,0 C 47 % 1016,3 hPa 0,0 l/m 9,2 km/h (2 Bft) S-SW 202 11,6 C 22,8 C 14,9 km/h (3 Bft)
19.07.2019 10:58 23,4 C 23,2 C 18,0 C 48 % 1016,3 hPa 0,0 l/m 8,2 km/h (2 Bft) W 270 11,8 C 22,9 C 14,9 km/h (3 Bft)
19.07.2019 10:56 23,3 C 23,9 C 18,0 C 48 % 1016,3 hPa 0,0 l/m 7,2 km/h (2 Bft) NW 315 11,7 C 23,1 C 14,5 km/h (3 Bft)
19.07.2019 10:54 23,6 C 24,0 C 18,0 C 48 % 1016,3 hPa 0,0 l/m 6,3 km/h (2 Bft) S-SW 202 11,9 C 23,6 C 14,5 km/h (3 Bft)
19.07.2019 10:52 23,8 C 24,6 C 17,9 C 48 % 1016,3 hPa 0,0 l/m 5,1 km/h (1 Bft) N 360 12,1 C 23,8 C 7,3 km/h (2 Bft)
19.07.2019 10:50 24,2 C 25,5 C 17,9 C 48 % 1016,3 hPa 0,0 l/m 5,1 km/h (1 Bft) W-NW 292 12,5 C 24,2 C 7,3 km/h (2 Bft)
19.07.2019 10:48 24,3 C 25,6 C 17,9 C 48 % 1016,3 hPa 0,0 l/m 5,0 km/h (1 Bft) S-SW 202 12,6 C 24,3 C 7,3 km/h (2 Bft)
19.07.2019 10:46 24,6 C 26,6 C 17,9 C 48 % 1016,1 hPa 0,0 l/m 4,8 km/h (1 Bft) O 90 12,8 C 24,6 C 10,8 km/h (2 Bft)
19.07.2019 10:44 24,6 C 26,9 C 17,9 C 48 % 1016,1 hPa 0,0 l/m 5,0 km/h (1 Bft) S-SO 157 12,8 C 24,6 C 10,8 km/h (2 Bft)
19.07.2019 10:42 24,6 C 27,5 C 17,9 C 48 % 1016,1 hPa 0,0 l/m 5,1 km/h (1 Bft) S-SW 202 12,8 C 24,6 C 10,4 km/h (2 Bft)
19.07.2019 10:40 24,8 C 27,3 C 17,9 C 49 % 1016,1 hPa 0,0 l/m 5,0 km/h (1 Bft) O-SO 112 13,3 C 24,8 C 4,8 km/h (1 Bft)
19.07.2019 10:38 24,8 C 27,3 C 17,9 C 49 % 1016,1 hPa 0,0 l/m 4,7 km/h (1 Bft) S-SW 202 13,3 C 24,8 C 6,2 km/h (2 Bft)
19.07.2019 10:36 24,7 C 26,8 C 17,8 C 49 % 1016,1 hPa 0,0 l/m 5,6 km/h (1 Bft) O-NO 67 13,3 C 24,7 C 10,6 km/h (2 Bft)
19.07.2019 10:34 24,5 C 26,4 C 17,8 C 49 % 1016,1 hPa 0,0 l/m 6,4 km/h (2 Bft) O 90 13,1 C 24,5 C 10,6 km/h (2 Bft)
19.07.2019 10:32 24,3 C 26,5 C 17,8 C 49 % 1016,1 hPa 0,0 l/m 6,8 km/h (2 Bft) S-SO 157 12,9 C 24,2 C 10,2 km/h (2 Bft)
19.07.2019 10:30 24,2 C 26,5 C 17,8 C 49 % 1016,1 hPa 0,0 l/m 6,9 km/h (2 Bft) S-SO 157 12,8 C 24,1 C 7,3 km/h (2 Bft)
19.07.2019 10:28 24,4 C 26,5 C 17,8 C 50 % 1016,1 hPa 0,0 l/m 7,6 km/h (2 Bft) N-NO 22 13,3 C 24,1 C 7,7 km/h (2 Bft)
19.07.2019 10:26 24,3 C 26,1 C 17,8 C 50 % 1015,2 hPa 0,0 l/m 8,5 km/h (2 Bft) S-SW 202 13,2 C 23,7 C 12,4 km/h (3 Bft)
19.07.2019 10:24 24,2 C 25,8 C 17,7 C 50 % 1015,2 hPa 0,0 l/m 7,7 km/h (2 Bft) W-NW 292 13,1 C 23,8 C 12,4 km/h (3 Bft)
19.07.2019 10:22 24,1 C 25,7 C 17,7 C 50 % 1015,2 hPa 0,0 l/m 7,6 km/h (2 Bft) NW 315 13,0 C 23,8 C 18,3 km/h (3 Bft)
19.07.2019 10:20 24,1 C 25,8 C 17,7 C 50 % 1015,2 hPa 0,0 l/m 6,9 km/h (2 Bft) SW 225 13,0 C 24,0 C 15,4 km/h (3 Bft)
19.07.2019 10:18 24,1 C 25,6 C 17,7 C 50 % 1015,2 hPa 0,0 l/m 6,6 km/h (2 Bft) S-SO 157 13,0 C 24,1 C 18,3 km/h (3 Bft)
19.07.2019 10:16 24,2 C 25,7 C 17,7 C 50 % 1015,2 hPa 0,0 l/m 5,6 km/h (1 Bft) SW 225 13,1 C 24,2 C 18,3 km/h (3 Bft)
19.07.2019 10:14 24,1 C 25,7 C 17,7 C 50 % 1015,2 hPa 0,0 l/m 5,3 km/h (1 Bft) S-SW 202 13,0 C 24,1 C 10,0 km/h (2 Bft)
19.07.2019 10:12 24,2 C 25,7 C 17,7 C 50 % 1015,2 hPa 0,0 l/m 4,8 km/h (1 Bft) NW 315 13,1 C 24,2 C 9,7 km/h (2 Bft)
19.07.2019 10:10 24,2 C 25,3 C 17,7 C 51 % 1015,2 hPa 0,0 l/m 4,2 km/h (1 Bft) W 270 13,4 C 24,2 C 9,1 km/h (2 Bft)
19.07.2019 10:08 24,1 C 25,2 C 17,6 C 51 % 1015,2 hPa 0,0 l/m 4,2 km/h (1 Bft) SW 225 13,3 C 24,1 C 9,1 km/h (2 Bft)
19.07.2019 10:06 24,2 C 25,6 C 17,6 C 51 % 1014,7 hPa 0,0 l/m 3,7 km/h (1 Bft) S-SO 157 13,4 C 24,2 C 7,7 km/h (2 Bft)
19.07.2019 10:04 24,2 C 25,8 C 17,6 C 51 % 1014,7 hPa 0,0 l/m 2,9 km/h (1 Bft) S-SW 202 13,4 C 24,2 C 7,7 km/h (2 Bft)
19.07.2019 10:02 24,2 C 26,0 C 17,6 C 52 % 1014,7 hPa 0,0 l/m 2,3 km/h (1 Bft) O-SO 112 13,7 C 24,2 C 3,1 km/h (1 Bft)
19.07.2019 10:00 23,8 C 25,8 C 17,6 C 52 % 1014,7 hPa 0,0 l/m 2,9 km/h (1 Bft) S-SO 157 13,3 C 23,8 C 6,4 km/h (2 Bft)
19.07.2019 09:58 23,8 C 25,4 C 17,5 C 52 % 1014,7 hPa 0,0 l/m 3,2 km/h (1 Bft) SO 135 13,3 C 23,8 C 6,4 km/h (2 Bft)
19.07.2019 09:56 23,9 C 25,4 C 17,5 C 54 % 1014,7 hPa 0,0 l/m 3,2 km/h (1 Bft) N 360 14,0 C 23,9 C 0,0 km/h (0 Bft)
19.07.2019 09:54 23,8 C 25,5 C 17,5 C 53 % 1014,7 hPa 0,0 l/m 4,0 km/h (1 Bft) O-NO 67 13,6 C 23,8 C 5,0 km/h (1 Bft)
19.07.2019 09:52 23,5 C 25,5 C 17,5 C 52 % 1014,7 hPa 0,0 l/m 5,0 km/h (1 Bft) O-NO 67 13,1 C 23,5 C 11,8 km/h (2 Bft)
19.07.2019 09:50 23,5 C 25,3 C 17,5 C 53 % 1014,7 hPa 0,0 l/m 4,8 km/h (1 Bft) NO 45 13,4 C 23,5 C 11,8 km/h (2 Bft)
19.07.2019 09:48 23,4 C 25,0 C 17,5 C 53 % 1014,7 hPa 0,0 l/m 4,0 km/h (1 Bft) SO 135 13,3 C 23,4 C 7,7 km/h (2 Bft)
19.07.2019 09:46 23,3 C 25,1 C 17,4 C 54 % 1015,0 hPa 0,0 l/m 4,0 km/h (1 Bft) O-SO 112 13,5 C 23,3 C 7,7 km/h (2 Bft)
19.07.2019 09:44 23,2 C 25,3 C 17,4 C 54 % 1015,0 hPa 0,0 l/m 3,1 km/h (1 Bft) O-NO 67 13,4 C 23,2 C 10,4 km/h (2 Bft)
19.07.2019 09:42 23,3 C 25,6 C 17,4 C 55 % 1015,0 hPa 0,0 l/m 1,8 km/h (1 Bft) O-NO 67 13,7 C 23,3 C 10,4 km/h (2 Bft)
19.07.2019 09:40 23,3 C 25,4 C 17,4 C 56 % 1015,0 hPa 0,0 l/m 1,0 km/h (0 Bft) O-NO 67 14,0 C 23,3 C 6,0 km/h (2 Bft)
19.07.2019 09:38 23,3 C 25,2 C 17,4 C 57 % 1015,0 hPa 0,0 l/m 0,3 km/h (0 Bft) O-SO 112 14,3 C 23,3 C 3,3 km/h (1 Bft)
19.07.2019 09:36 23,1 C 25,2 C 17,3 C 57 % 1015,0 hPa 0,0 l/m 0,2 km/h (0 Bft) NW 315 14,1 C 23,1 C 3,3 km/h (1 Bft)
19.07.2019 09:34 23,0 C 25,5 C 17,3 C 57 % 1015,0 hPa 0,0 l/m 0,0 km/h (0 Bft) S 180 14,0 C 23,0 C 0,0 km/h (0 Bft)
19.07.2019 09:32 22,8 C 25,5 C 17,4 C 60 % 1015,0 hPa 0,0 l/m 0,0 km/h (0 Bft) NW 315 14,6 C 22,8 C 0,0 km/h (0 Bft)
19.07.2019 09:30 22,6 C 25,3 C 17,4 C 60 % 1015,0 hPa 0,0 l/m 0,0 km/h (0 Bft) O-SO 112 14,4 C 22,6 C 0,0 km/h (0 Bft)
19.07.2019 09:28 22,6 C 24,9 C 17,3 C 62 % 1015,0 hPa 0,0 l/m 0,0 km/h (0 Bft) SO 135 14,9 C 22,6 C 0,0 km/h (0 Bft)
19.07.2019 09:26 22,5 C 24,6 C 17,3 C 62 % 1015,7 hPa 0,0 l/m 0,0 km/h (0 Bft) O-NO 67 14,8 C 22,5 C 0,0 km/h (0 Bft)
19.07.2019 09:24 22,2 C 24,6 C 17,3 C 63 % 1015,7 hPa 0,0 l/m 0,0 km/h (0 Bft) O-NO 67 14,8 C 22,2 C 0,0 km/h (0 Bft)
19.07.2019 09:22 22,1 C 24,8 C 17,3 C 65 % 1015,7 hPa 0,0 l/m 0,2 km/h (0 Bft) N 360 15,2 C 22,1 C 0,0 km/h (0 Bft)
19.07.2019 09:20 21,8 C 24,6 C 17,3 C 66 % 1015,7 hPa 0,0 l/m 0,3 km/h (0 Bft) O 90 15,2 C 21,8 C 0,0 km/h (0 Bft)
19.07.2019 09:18 21,6 C 24,3 C 17,3 C 67 % 1015,7 hPa 0,0 l/m 0,5 km/h (0 Bft) NW 315 15,2 C 21,6 C 0,0 km/h (0 Bft)
19.07.2019 09:16 21,4 C 24,2 C 17,2 C 68 % 1015,7 hPa 0,0 l/m 0,5 km/h (0 Bft) NW 315 15,2 C 21,4 C 0,0 km/h (0 Bft)
19.07.2019 09:14 21,1 C 24,0 C 17,2 C 69 % 1015,7 hPa 0,0 l/m 0,5 km/h (0 Bft) O-SO 112 15,2 C 21,1 C 0,0 km/h (0 Bft)
19.07.2019 09:12 21,0 C 23,9 C 17,2 C 69 % 1015,7 hPa 0,0 l/m 0,5 km/h (0 Bft) O 90 15,1 C 21,0 C 3,1 km/h (1 Bft)
19.07.2019 09:10 20,8 C 23,6 C 17,2 C 70 % 1015,7 hPa 0,0 l/m 0,5 km/h (0 Bft) O-NO 67 15,1 C 20,8 C 3,1 km/h (1 Bft)
19.07.2019 09:08 20,8 C 23,6 C 17,2 C 70 % 1015,7 hPa 0,0 l/m 0,0 km/h (0 Bft) O-NO 67 15,1 C 20,8 C 0,0 km/h (0 Bft)
19.07.2019 09:06 20,8 C 23,5 C 17,2 C 70 % 1016,2 hPa 0,0 l/m 0,0 km/h (0 Bft) N 360 15,1 C 20,8 C 0,0 km/h (0 Bft)
19.07.2019 09:04 20,6 C 23,0 C 17,2 C 71 % 1016,2 hPa 0,0 l/m 0,2 km/h (0 Bft) O-SO 112 15,2 C 20,6 C 0,0 km/h (0 Bft)
19.07.2019 09:02 20,7 C 22,5 C 17,2 C 71 % 1016,2 hPa 0,0 l/m 0,2 km/h (0 Bft) O-SO 112 15,2 C 20,7 C 0,0 km/h (0 Bft)
19.07.2019 09:00 20,6 C 21,9 C 17,2 C 72 % 1016,2 hPa 0,0 l/m 0,2 km/h (0 Bft) O-NO 67 15,4 C 20,6 C 0,0 km/h (0 Bft)
19.07.2019 08:58 20,0 C 22,2 C 17,2 C 72 % 1016,2 hPa 0,0 l/m 0,2 km/h (0 Bft) O-SO 112 14,8 C 20,0 C 2,1 km/h (1 Bft)
19.07.2019 08:56 20,0 C 21,9 C 17,2 C 72 % 1016,2 hPa 0,0 l/m 0,2 km/h (0 Bft) O-NO 67 14,8 C 20,0 C 2,1 km/h (1 Bft)
19.07.2019 08:54 19,8 C 22,0 C 17,2 C 72 % 1016,2 hPa 0,0 l/m 0,0 km/h (0 Bft) SO 135 14,6 C 19,8 C 0,0 km/h (0 Bft)
19.07.2019 08:52 19,5 C 22,0 C 17,2 C 73 % 1016,2 hPa 0,0 l/m 0,0 km/h (0 Bft) O-NO 67 14,5 C 19,5 C 0,0 km/h (0 Bft)
19.07.2019 08:50 19,5 C 21,9 C 17,2 C 73 % 1016,2 hPa 0,0 l/m 0,0 km/h (0 Bft) O-NO 67 14,5 C 19,5 C 0,0 km/h (0 Bft)
19.07.2019 08:48 19,5 C 21,7 C 17,1 C 73 % 1016,2 hPa 0,0 l/m 0,0 km/h (0 Bft) O-NO 67 14,5 C 19,5 C 0,0 km/h (0 Bft)
19.07.2019 08:46 19,4 C 21,5 C 17,1 C 74 % 1017,1 hPa 0,0 l/m 0,0 km/h (0 Bft) O 90 14,6 C 19,4 C 0,0 km/h (0 Bft)
19.07.2019 08:44 19,3 C 21,2 C 17,1 C 75 % 1017,1 hPa 0,0 l/m 0,0 km/h (0 Bft) O-NO 67 14,8 C 19,3 C 0,0 km/h (0 Bft)
19.07.2019 08:42 19,0 C 20,9 C 17,1 C 75 % 1017,1 hPa 0,0 l/m 0,3 km/h (0 Bft) N-NO 22 14,5 C 19,0 C 0,0 km/h (0 Bft)
19.07.2019 08:40 18,7 C 21,2 C 17,1 C 75 % 1017,1 hPa 0,0 l/m 0,3 km/h (0 Bft) O-NO 67 14,2 C 18,7 C 0,0 km/h (0 Bft)
19.07.2019 08:38 18,5 C 21,3 C 17,1 C 75 % 1017,1 hPa 0,0 l/m 0,8 km/h (0 Bft) O 90 14,0 C 18,5 C 0,0 km/h (0 Bft)
19.07.2019 08:36 18,5 C 20,9 C 17,1 C 76 % 1017,1 hPa 0,0 l/m 1,1 km/h (1 Bft) O-NO 67 14,2 C 18,5 C 0,0 km/h (0 Bft)
19.07.2019 08:34 18,2 C 20,5 C 17,1 C 76 % 1017,1 hPa 0,0 l/m 1,1 km/h (1 Bft) O-NO 67 13,9 C 18,2 C 2,3 km/h (1 Bft)
19.07.2019 08:32 18,1 C 20,4 C 17,1 C 77 % 1017,1 hPa 0,0 l/m 1,1 km/h (1 Bft) O-NO 67 14,0 C 18,1 C 2,3 km/h (1 Bft)
19.07.2019 08:30 17,9 C 20,4 C 17,0 C 77 % 1017,1 hPa 0,0 l/m 1,1 km/h (1 Bft) O-NO 67 13,8 C 17,9 C 3,9 km/h (1 Bft)
19.07.2019 08:28 17,8 C 20,3 C 17,1 C 78 % 1017,1 hPa 0,0 l/m 0,8 km/h (0 Bft) O-NO 67 13,9 C 17,8 C 3,9 km/h (1 Bft)
19.07.2019 08:26 17,7 C 20,2 C 17,1 C 79 % 1017,3 hPa 0,0 l/m 0,3 km/h (0 Bft) O-NO 67 14,0 C 17,7 C 2,3 km/h (1 Bft)
19.07.2019 08:24 17,6 C 20,2 C 17,1 C 79 % 1017,3 hPa 0,0 l/m 0,3 km/h (0 Bft) O-SO 112 13,9 C 17,6 C 2,1 km/h (1 Bft)
19.07.2019 08:22 17,6 C 20,2 C 17,1 C 80 % 1017,3 hPa 0,0 l/m 0,3 km/h (0 Bft) O-NO 67 14,1 C 17,6 C 2,1 km/h (1 Bft)
19.07.2019 08:20 17,6 C 20,3 C 17,1 C 80 % 1017,3 hPa 0,0 l/m 0,0 km/h (0 Bft) O-NO 67 14,1 C 17,6 C 0,0 km/h (0 Bft)
19.07.2019 08:18 17,4 C 20,2 C 17,1 C 80 % 1017,3 hPa 0,0 l/m 0,0 km/h (0 Bft) N-NW 337 13,9 C 17,4 C 0,0 km/h (0 Bft)
19.07.2019 08:16 17,1 C 19,9 C 17,1 C 81 % 1017,3 hPa 0,0 l/m 0,0 km/h (0 Bft) NW 315 13,8 C 17,1 C 0,0 km/h (0 Bft)
19.07.2019 08:14 16,8 C 19,6 C 17,1 C 81 % 1017,3 hPa 0,0 l/m 0,0 km/h (0 Bft) SO 135 13,5 C 16,8 C 0,0 km/h (0 Bft)
19.07.2019 08:12 16,4 C 19,4 C 17,1 C 82 % 1017,3 hPa 0,0 l/m 0,0 km/h (0 Bft) NO 45 13,3 C 16,4 C 0,0 km/h (0 Bft)
19.07.2019 08:10 16,1 C 19,1 C 17,1 C 82 % 1017,3 hPa 0,0 l/m 0,0 km/h (0 Bft) SO 135 13,0 C 16,1 C 0,0 km/h (0 Bft)
19.07.2019 08:08 16,0 C 19,0 C 17,1 C 83 % 1017,3 hPa 0,0 l/m 0,0 km/h (0 Bft) O-NO 67 13,1 C 16,0 C 0,0 km/h (0 Bft)
19.07.2019 08:06 15,8 C 18,8 C 17,1 C 83 % 1017,7 hPa 0,0 l/m 0,0 km/h (0 Bft) O-SO 112 12,9 C 15,8 C 0,0 km/h (0 Bft)
19.07.2019 08:04 15,5 C 18,7 C 17,1 C 83 % 1017,7 hPa 0,0 l/m 0,0 km/h (0 Bft) O-SO 112 12,6 C 15,5 C 0,0 km/h (0 Bft)
19.07.2019 08:02 15,1 C 18,7 C 17,1 C 84 % 1017,7 hPa 0,0 l/m 0,0 km/h (0 Bft) O-NO 67 12,4 C 15,1 C 0,0 km/h (0 Bft)
19.07.2019 08:00 15,0 C 18,5 C 17,1 C 84 % 1017,7 hPa 0,0 l/m 0,0 km/h (0 Bft) O 90 12,3 C 15,0 C 0,0 km/h (0 Bft)
19.07.2019 07:58 14,9 C 18,3 C 17,1 C 85 % 1017,7 hPa 0,0 l/m 0,0 km/h (0 Bft) O 90 12,4 C 14,9 C 0,0 km/h (0 Bft)
19.07.2019 07:56 14,7 C 18,1 C 17,1 C 85 % 1017,7 hPa 0,0 l/m 0,0 km/h (0 Bft) O 90 12,2 C 14,7 C 0,0 km/h (0 Bft)
19.07.2019 07:54 14,5 C 17,7 C 17,1 C 85 % 1017,7 hPa 0,0 l/m 0,0 km/h (0 Bft) O-NO 67 12,0 C 14,5 C 0,0 km/h (0 Bft)
19.07.2019 07:52 14,3 C 17,2 C 17,1 C 85 % 1017,7 hPa 0,0 l/m 0,0 km/h (0 Bft) SO 135 11,8 C 14,3 C 0,0 km/h (0 Bft)
19.07.2019 07:50 14,2 C 17,2 C 17,1 C 85 % 1017,7 hPa 0,0 l/m 0,0 km/h (0 Bft) O-NO 67 11,7 C 14,2 C 0,0 km/h (0 Bft)
19.07.2019 07:48 14,0 C 16,7 C 17,1 C 85 % 1017,7 hPa 0,0 l/m 0,0 km/h (0 Bft) S-SO 157 11,5 C 14,0 C 0,0 km/h (0 Bft)
19.07.2019 07:46 13,9 C 16,4 C 17,1 C 86 % 1018,0 hPa 0,0 l/m 0,0 km/h (0 Bft) S-SW 202 11,6 C 13,9 C 0,0 km/h (0 Bft)
19.07.2019 07:44 13,8 C 16,7 C 17,1 C 86 % 1018,0 hPa 0,0 l/m 0,0 km/h (0 Bft) O-SO 112 11,5 C 13,8 C 0,0 km/h (0 Bft)
19.07.2019 07:42 13,6 C 16,6 C 17,1 C 86 % 1018,0 hPa 0,0 l/m 0,0 km/h (0 Bft) O-NO 67 11,3 C 13,6 C 0,0 km/h (0 Bft)
19.07.2019 07:40 13,4 C 16,1 C 17,1 C 86 % 1018,0 hPa 0,0 l/m 0,0 km/h (0 Bft) SO 135 11,1 C 13,4 C 0,0 km/h (0 Bft)
19.07.2019 07:38 13,2 C 16,0 C 17,1 C 86 % 1018,0 hPa 0,0 l/m 0,0 km/h (0 Bft) SO 135 10,9 C 13,2 C 0,0 km/h (0 Bft)
19.07.2019 07:36 13,0 C 16,1 C 17,1 C 86 % 1018,0 hPa 0,0 l/m 0,0 km/h (0 Bft) SO 135 10,7 C 13,0 C 0,0 km/h (0 Bft)
19.07.2019 07:34 12,9 C 16,0 C 17,2 C 87 % 1018,0 hPa 0,0 l/m 0,0 km/h (0 Bft) NW 315 10,8 C 12,9 C 0,0 km/h (0 Bft)
19.07.2019 07:32 12,7 C 15,8 C 17,2 C 87 % 1018,0 hPa 0,0 l/m 0,0 km/h (0 Bft) O-NO 67 10,6 C 12,7 C 0,0 km/h (0 Bft)
19.07.2019 07:30 12,6 C 15,3 C 17,2 C 87 % 1018,0 hPa 0,0 l/m 0,0 km/h (0 Bft) NW 315 10,5 C 12,6 C 0,0 km/h (0 Bft)
19.07.2019 07:28 12,5 C 15,0 C 17,2 C 87 % 1018,0 hPa 0,0 l/m 0,0 km/h (0 Bft) S-SO 157 10,4 C 12,5 C 0,0 km/h (0 Bft)
19.07.2019 07:26 12,4 C 14,6 C 17,2 C 86 % 1018,0 hPa 0,0 l/m 0,2 km/h (0 Bft) O-SO 112 10,1 C 12,4 C 0,0 km/h (0 Bft)
19.07.2019 07:24 12,3 C 14,0 C 17,2 C 86 % 1018,0 hPa 0,0 l/m 0,5 km/h (0 Bft) S-SO 157 10,0 C 12,3 C 0,0 km/h (0 Bft)
19.07.2019 07:22 12,2 C 13,6 C 17,2 C 86 % 1018,0 hPa 0,0 l/m 0,8 km/h (0 Bft) N 360 9,9 C 12,2 C 0,0 km/h (0 Bft)
19.07.2019 07:20 12,1 C 13,4 C 17,2 C 86 % 1018,0 hPa 0,0 l/m 0,8 km/h (0 Bft) S-SO 157 9,8 C 12,1 C 0,0 km/h (0 Bft)
19.07.2019 07:18 12,0 C 12,9 C 17,2 C 86 % 1018,0 hPa 0,0 l/m 1,0 km/h (0 Bft) S-SO 157 9,7 C 12,0 C 0,0 km/h (0 Bft)
19.07.2019 07:16 11,9 C 12,6 C 17,2 C 87 % 1018,0 hPa 0,0 l/m 1,0 km/h (0 Bft) S 180 9,8 C 11,9 C 2,5 km/h (1 Bft)
19.07.2019 07:14 11,9 C 12,5 C 17,2 C 87 % 1018,0 hPa 0,0 l/m 1,8 km/h (1 Bft) S-SW 202 9,8 C 11,9 C 3,1 km/h (1 Bft)
19.07.2019 07:12 11,8 C 12,6 C 17,2 C 87 % 1018,0 hPa 0,0 l/m 2,3 km/h (1 Bft) S-SO 157 9,7 C 11,8 C 8,3 km/h (2 Bft)
19.07.2019 07:10 11,7 C 12,5 C 17,2 C 87 % 1018,0 hPa 0,0 l/m 2,7 km/h (1 Bft) S-SO 157 9,6 C 11,7 C 2,3 km/h (1 Bft)
19.07.2019 07:08 11,7 C 12,5 C 17,2 C 87 % 1018,0 hPa 0,0 l/m 3,2 km/h (1 Bft) S 180 9,6 C 11,7 C 7,0 km/h (2 Bft)
19.07.2019 07:06 12,0 C 12,9 C 17,2 C 87 % 1017,9 hPa 0,0 l/m 3,7 km/h (1 Bft) O-NO 67 9,9 C 12,0 C 7,0 km/h (2 Bft)
19.07.2019 07:04 11,9 C 12,7 C 17,2 C 87 % 1017,9 hPa 0,0 l/m 3,5 km/h (1 Bft) N-NO 22 9,8 C 11,9 C 8,3 km/h (2 Bft)
19.07.2019 07:02 11,7 C 12,5 C 17,2 C 87 % 1017,9 hPa 0,0 l/m 3,2 km/h (1 Bft) O 90 9,6 C 11,7 C 8,3 km/h (2 Bft)
19.07.2019 07:00 11,4 C 12,2 C 17,2 C 87 % 1017,9 hPa 0,0 l/m 2,6 km/h (1 Bft) O-NO 67 9,3 C 11,4 C 6,6 km/h (2 Bft)
19.07.2019 06:58 11,4 C 12,3 C 17,2 C 87 % 1017,9 hPa 0,0 l/m 2,4 km/h (1 Bft) O-NO 67 9,3 C 11,4 C 3,7 km/h (1 Bft)
19.07.2019 06:56 11,4 C 12,2 C 17,2 C 87 % 1017,9 hPa 0,0 l/m 2,4 km/h (1 Bft) N-NO 22 9,3 C 11,4 C 4,4 km/h (1 Bft)
19.07.2019 06:54 11,2 C 12,2 C 17,2 C 87 % 1017,9 hPa 0,0 l/m 2,3 km/h (1 Bft) O-NO 67 9,1 C 11,2 C 4,4 km/h (1 Bft)
19.07.2019 06:52 11,2 C 12,2 C 17,2 C 87 % 1017,9 hPa 0,0 l/m 1,4 km/h (1 Bft) O-NO 67 9,1 C 11,2 C 3,3 km/h (1 Bft)
19.07.2019 06:50 11,0 C 12,2 C 17,2 C 87 % 1017,9 hPa 0,0 l/m 1,1 km/h (1 Bft) NO 45 8,9 C 11,0 C 3,3 km/h (1 Bft)
19.07.2019 06:48 11,0 C 12,1 C 17,2 C 87 % 1017,9 hPa 0,0 l/m 0,8 km/h (0 Bft) O-NO 67 8,9 C 11,0 C 3,3 km/h (1 Bft)
19.07.2019 06:46 10,9 C 11,8 C 17,2 C 87 % 1017,6 hPa 0,0 l/m 0,5 km/h (0 Bft) O-NO 67 8,8 C 10,9 C 3,3 km/h (1 Bft)
19.07.2019 06:44 11,0 C 11,7 C 17,2 C 87 % 1017,6 hPa 0,0 l/m 0,2 km/h (0 Bft) O-NO 67 8,9 C 11,0 C 0,0 km/h (0 Bft)
19.07.2019 06:42 11,0 C 11,4 C 17,2 C 87 % 1017,6 hPa 0,0 l/m 0,2 km/h (0 Bft) O-NO 67 8,9 C 11,0 C 0,0 km/h (0 Bft)
19.07.2019 06:40 11,0 C 11,4 C 17,2 C 87 % 1017,6 hPa 0,0 l/m 0,2 km/h (0 Bft) N 360 8,9 C 11,0 C 0,0 km/h (0 Bft)
19.07.2019 06:38 10,8 C 11,5 C 17,3 C 87 % 1017,6 hPa 0,0 l/m 0,2 km/h (0 Bft) W-NW 292 8,7 C 10,8 C 0,0 km/h (0 Bft)
19.07.2019 06:36 10,8 C 11,5 C 17,3 C 87 % 1017,6 hPa 0,0 l/m 0,2 km/h (0 Bft) W 270 8,7 C 10,8 C 0,0 km/h (0 Bft)
19.07.2019 06:34 10,9 C 11,6 C 17,3 C 87 % 1017,6 hPa 0,0 l/m 0,0 km/h (0 Bft) NW 315 8,8 C 10,9 C 0,0 km/h (0 Bft)
19.07.2019 06:32 11,0 C 11,8 C 17,3 C 87 % 1017,6 hPa 0,0 l/m 0,0 km/h (0 Bft) O 90 8,9 C 11,0 C 0,0 km/h (0 Bft)
19.07.2019 06:30 10,9 C 12,1 C 17,3 C 87 % 1017,6 hPa 0,0 l/m 0,0 km/h (0 Bft) S-SO 157 8,8 C 10,9 C 0,0 km/h (0 Bft)
19.07.2019 06:28 10,9 C 12,1 C 17,3 C 87 % 1017,6 hPa 0,0 l/m 0,0 km/h (0 Bft) S-SO 157 8,8 C 10,9 C 0,0 km/h (0 Bft)
19.07.2019 06:26 10,8 C 11,9 C 17,3 C 87 % 1017,6 hPa 0,0 l/m 0,0 km/h (0 Bft) S-SW 202 8,7 C 10,8 C 0,0 km/h (0 Bft)
19.07.2019 06:24 10,6 C 11,8 C 17,3 C 87 % 1017,6 hPa 0,0 l/m 0,0 km/h (0 Bft) S-SW 202 8,5 C 10,6 C 0,0 km/h (0 Bft)
19.07.2019 06:22 10,6 C 11,9 C 17,3 C 87 % 1017,6 hPa 0,0 l/m 0,2 km/h (0 Bft) O-NO 67 8,5 C 10,6 C 0,0 km/h (0 Bft)
19.07.2019 06:20 10,6 C 11,8 C 17,3 C 87 % 1017,6 hPa 0,0 l/m 0,3 km/h (0 Bft) NO 45 8,5 C 10,6 C 0,0 km/h (0 Bft)
19.07.2019 06:18 10,6 C 11,4 C 17,3 C 87 % 1017,6 hPa 0,0 l/m 0,5 km/h (0 Bft) NO 45 8,5 C 10,6 C 0,0 km/h (0 Bft)
19.07.2019 06:16 10,5 C 11,4 C 17,3 C 87 % 1017,6 hPa 0,0 l/m 1,0 km/h (0 Bft) O-SO 112 8,4 C 10,5 C 0,0 km/h (0 Bft)
19.07.2019 06:14 10,4 C 11,4 C 17,3 C 87 % 1017,6 hPa 0,0 l/m 1,1 km/h (1 Bft) W-NW 292 8,3 C 10,4 C 0,0 km/h (0 Bft)
19.07.2019 06:12 10,3 C 11,3 C 17,3 C 87 % 1017,6 hPa 0,0 l/m 1,0 km/h (0 Bft) S-SW 202 8,2 C 10,3 C 0,0 km/h (0 Bft)
19.07.2019 06:10 10,1 C 10,5 C 17,4 C 87 % 1017,6 hPa 0,0 l/m 0,0 km/h (0 Bft) W 270 8,0 C 10,1 C 0,0 km/h (0 Bft)
19.07.2019 06:08 10,1 C 10,5 C 17,4 C 87 % 1017,6 hPa 0,0 l/m 0,0 km/h (0 Bft) W 270 8,0 C 10,1 C 0,0 km/h (0 Bft)
19.07.2019 06:06 10,1 C 10,5 C 17,4 C 87 % 1017,5 hPa 0,0 l/m 0,0 km/h (0 Bft) W 270 8,0 C 10,1 C 0,0 km/h (0 Bft)
19.07.2019 06:04 10,1 C 10,5 C 17,4 C 87 % 1017,5 hPa 0,0 l/m 0,0 km/h (0 Bft) W 270 8,0 C 10,1 C 0,0 km/h (0 Bft)
19.07.2019 06:02 10,1 C 10,5 C 17,4 C 87 % 1017,5 hPa 0,0 l/m 0,0 km/h (0 Bft) W 270 8,0 C 10,1 C 0,0 km/h (0 Bft)
19.07.2019 06:00 10,1 C 10,3 C 17,4 C 87 % 1017,5 hPa 0,0 l/m 0,0 km/h (0 Bft) SW 225 8,0 C 10,1 C 0,0 km/h (0 Bft)
19.07.2019 05:58 10,0 C 10,2 C 17,4 C 87 % 1017,5 hPa 0,0 l/m 0,0 km/h (0 Bft) W-NW 292 7,9 C 10,0 C 0,0 km/h (0 Bft)
19.07.2019 05:56 10,0 C 10,1 C 17,4 C 87 % 1017,5 hPa 0,0 l/m 0,0 km/h (0 Bft) W 270 7,9 C 10,0 C 0,0 km/h (0 Bft)
19.07.2019 05:54 10,1 C 10,1 C 17,4 C 87 % 1017,5 hPa 0,0 l/m 0,0 km/h (0 Bft) O-SO 112 8,0 C 10,1 C 0,0 km/h (0 Bft)
19.07.2019 05:52 10,1 C 9,9 C 17,4 C 87 % 1017,5 hPa 0,0 l/m 0,0 km/h (0 Bft) O-SO 112 8,0 C 10,1 C 0,0 km/h (0 Bft)
19.07.2019 05:50 10,1 C 9,8 C 17,4 C 87 % 1017,5 hPa 0,0 l/m 0,0 km/h (0 Bft) O-SO 112 8,0 C 10,1 C 0,0 km/h (0 Bft)
19.07.2019 05:48 9,9 C 9,6 C 17,4 C 87 % 1017,5 hPa 0,0 l/m 0,0 km/h (0 Bft) N-NO 22 7,8 C 9,9 C 0,0 km/h (0 Bft)
19.07.2019 05:46 9,9 C 9,6 C 17,4 C 87 % 1017,3 hPa 0,0 l/m 0,0 km/h (0 Bft) N-NO 22 7,8 C 9,9 C 0,0 km/h (0 Bft)
19.07.2019 05:44 10,0 C 9,4 C 17,4 C 87 % 1017,3 hPa 0,0 l/m 0,0 km/h (0 Bft) S-SW 202 7,9 C 10,0 C 0,0 km/h (0 Bft)
19.07.2019 05:42 10,0 C 9,2 C 17,5 C 86 % 1017,3 hPa 0,0 l/m 0,0 km/h (0 Bft) W 270 7,8 C 10,0 C 0,0 km/h (0 Bft)
19.07.2019 05:40 9,9 C 9,0 C 17,5 C 87 % 1017,3 hPa 0,0 l/m 0,0 km/h (0 Bft) S-SO 157 7,8 C 9,9 C 0,0 km/h (0 Bft)
19.07.2019 05:38 9,9 C 9,1 C 17,5 C 86 % 1017,3 hPa 0,0 l/m 0,0 km/h (0 Bft) SW 225 7,7 C 9,9 C 0,0 km/h (0 Bft)
19.07.2019 05:36 9,9 C 9,0 C 17,5 C 86 % 1017,3 hPa 0,0 l/m 0,0 km/h (0 Bft) W 270 7,7 C 9,9 C 0,0 km/h (0 Bft)
19.07.2019 05:34 10,0 C 9,2 C 17,5 C 86 % 1017,3 hPa 0,0 l/m 0,0 km/h (0 Bft) S-SW 202 7,8 C 10,0 C 0,0 km/h (0 Bft)
19.07.2019 05:32 9,9 C 9,1 C 17,5 C 86 % 1017,3 hPa 0,0 l/m 0,0 km/h (0 Bft) O-NO 67 7,7 C 9,9 C 0,0 km/h (0 Bft)
19.07.2019 05:30 9,9 C 9,2 C 17,5 C 86 % 1017,3 hPa 0,0 l/m 0,0 km/h (0 Bft) W 270 7,7 C 9,9 C 0,0 km/h (0 Bft)
19.07.2019 05:28 9,8 C 8,9 C 17,5 C 86 % 1017,3 hPa 0,0 l/m 0,0 km/h (0 Bft) N 360 7,6 C 9,8 C 0,0 km/h (0 Bft)
19.07.2019 05:26 10,0 C 9,0 C 17,5 C 86 % 1017,3 hPa 0,0 l/m 0,0 km/h (0 Bft) NW 315 7,8 C 10,0 C 0,0 km/h (0 Bft)
19.07.2019 05:24 9,9 C 8,9 C 17,5 C 86 % 1017,3 hPa 0,0 l/m 0,0 km/h (0 Bft) NO 45 7,7 C 9,9 C 0,0 km/h (0 Bft)
19.07.2019 05:22 10,0 C 8,9 C 17,5 C 86 % 1017,3 hPa 0,0 l/m 0,0 km/h (0 Bft) SW 225 7,8 C 10,0 C 0,0 km/h (0 Bft)
19.07.2019 05:20 9,9 C 8,7 C 17,6 C 86 % 1017,3 hPa 0,0 l/m 0,0 km/h (0 Bft) S-SW 202 7,7 C 9,9 C 0,0 km/h (0 Bft)
19.07.2019 05:18 10,0 C 8,7 C 17,6 C 86 % 1017,3 hPa 0,0 l/m 0,0 km/h (0 Bft) S-SO 157 7,8 C 10,0 C 0,0 km/h (0 Bft)
19.07.2019 05:16 10,0 C 8,7 C 17,6 C 86 % 1017,3 hPa 0,0 l/m 0,0 km/h (0 Bft) O-NO 67 7,8 C 10,0 C 0,0 km/h (0 Bft)
19.07.2019 05:14 10,0 C 8,8 C 17,6 C 86 % 1017,3 hPa 0,0 l/m 0,0 km/h (0 Bft) O-NO 67 7,8 C 10,0 C 0,0 km/h (0 Bft)
19.07.2019 05:12 10,1 C 8,9 C 17,6 C 86 % 1017,3 hPa 0,0 l/m 0,0 km/h (0 Bft) N 360 7,9 C 10,1 C 0,0 km/h (0 Bft)
19.07.2019 05:10 10,1 C 9,2 C 17,6 C 86 % 1017,3 hPa 0,0 l/m 0,0 km/h (0 Bft) O-NO 67 7,9 C 10,1 C 0,0 km/h (0 Bft)
19.07.2019 05:08 10,1 C 9,0 C 17,6 C 86 % 1017,3 hPa 0,0 l/m 0,0 km/h (0 Bft) N 360 7,9 C 10,1 C 0,0 km/h (0 Bft)
19.07.2019 05:06 10,1 C 9,0 C 17,6 C 86 % 1017,2 hPa 0,0 l/m 0,0 km/h (0 Bft) N-NO 22 7,9 C 10,1 C 0,0 km/h (0 Bft)
19.07.2019 05:04 10,1 C 8,9 C 17,6 C 86 % 1017,2 hPa 0,0 l/m 0,0 km/h (0 Bft) NW 315 7,9 C 10,1 C 0,0 km/h (0 Bft)
19.07.2019 05:01 10,1 C 8,8 C 17,6 C 86 % 1017,2 hPa 0,0 l/m 0,0 km/h (0 Bft) N 360 7,9 C 10,1 C 0,0 km/h (0 Bft)
19.07.2019 05:00 10,1 C 8,8 C 17,6 C 86 % 1017,2 hPa 0,0 l/m 0,0 km/h (0 Bft) N-NO 22 7,9 C 10,1 C 0,0 km/h (0 Bft)
19.07.2019 04:58 10,1 C 9,0 C 17,7 C 86 % 1017,2 hPa 0,0 l/m 0,0 km/h (0 Bft) S-SW 202 7,9 C 10,1 C 0,0 km/h (0 Bft)
19.07.2019 04:56 10,1 C 9,0 C 17,7 C 86 % 1017,2 hPa 0,0 l/m 0,0 km/h (0 Bft) SO 135 7,9 C 10,1 C 0,0 km/h (0 Bft)
19.07.2019 04:54 10,0 C 9,0 C 17,7 C 86 % 1017,2 hPa 0,0 l/m 0,0 km/h (0 Bft) W 270 7,8 C 10,0 C 0,0 km/h (0 Bft)
19.07.2019 04:52 10,0 C 9,3 C 17,7 C 86 % 1017,2 hPa 0,0 l/m 0,0 km/h (0 Bft) SO 135 7,8 C 10,0 C 0,0 km/h (0 Bft)
19.07.2019 04:50 10,1 C 9,3 C 17,7 C 86 % 1017,2 hPa 0,0 l/m 0,0 km/h (0 Bft) O-NO 67 7,9 C 10,1 C 0,0 km/h (0 Bft)
19.07.2019 04:48 10,1 C 9,6 C 17,7 C 86 % 1017,2 hPa 0,0 l/m 0,0 km/h (0 Bft) O-SO 112 7,9 C 10,1 C 0,0 km/h (0 Bft)
19.07.2019 04:46 10,1 C 9,8 C 17,7 C 86 % 1017,2 hPa 0,0 l/m 0,0 km/h (0 Bft) S-SO 157 7,9 C 10,1 C 0,0 km/h (0 Bft)
19.07.2019 04:44 10,1 C 9,7 C 17,7 C 86 % 1017,2 hPa 0,0 l/m 0,0 km/h (0 Bft) SW 225 7,9 C 10,1 C 0,0 km/h (0 Bft)
19.07.2019 04:42 10,0 C 9,3 C 17,7 C 86 % 1017,2 hPa 0,0 l/m 0,0 km/h (0 Bft) S-SW 202 7,8 C 10,0 C 0,0 km/h (0 Bft)
19.07.2019 04:40 10,0 C 9,3 C 17,7 C 86 % 1017,2 hPa 0,0 l/m 0,0 km/h (0 Bft) N-NO 22 7,8 C 10,0 C 0,0 km/h (0 Bft)
19.07.2019 04:38 10,2 C 9,4 C 17,8 C 86 % 1017,2 hPa 0,0 l/m 0,0 km/h (0 Bft) SW 225 8,0 C 10,2 C 0,0 km/h (0 Bft)
19.07.2019 04:36 9,9 C 9,2 C 17,8 C 86 % 1017,2 hPa 0,0 l/m 0,0 km/h (0 Bft) NW 315 7,7 C 9,9 C 0,0 km/h (0 Bft)
19.07.2019 04:34 10,0 C 9,1 C 17,8 C 85 % 1017,2 hPa 0,0 l/m 0,0 km/h (0 Bft) N 360 7,6 C 10,0 C 0,0 km/h (0 Bft)
19.07.2019 04:32 10,1 C 9,1 C 17,8 C 86 % 1017,2 hPa 0,0 l/m 0,0 km/h (0 Bft) O-NO 67 7,9 C 10,1 C 0,0 km/h (0 Bft)
19.07.2019 04:30 10,2 C 9,2 C 17,8 C 86 % 1017,2 hPa 0,0 l/m 0,0 km/h (0 Bft) O-NO 67 8,0 C 10,2 C 0,0 km/h (0 Bft)
19.07.2019 04:28 10,2 C 9,2 C 17,8 C 86 % 1017,2 hPa 0,0 l/m 0,0 km/h (0 Bft) N 360 8,0 C 10,2 C 0,0 km/h (0 Bft)
19.07.2019 04:26 10,0 C 9,1 C 17,8 C 86 % 1017,1 hPa 0,0 l/m 0,0 km/h (0 Bft) N 360 7,8 C 10,0 C 0,0 km/h (0 Bft)
19.07.2019 04:24 10,1 C 8,9 C 17,8 C 86 % 1017,1 hPa 0,0 l/m 0,0 km/h (0 Bft) N-NO 22 7,9 C 10,1 C 0,0 km/h (0 Bft)
19.07.2019 04:22 10,1 C 9,0 C 17,8 C 85 % 1017,1 hPa 0,0 l/m 0,0 km/h (0 Bft) NW 315 7,7 C 10,1 C 0,0 km/h (0 Bft)
19.07.2019 04:20 10,0 C 8,9 C 17,9 C 85 % 1017,1 hPa 0,0 l/m 0,0 km/h (0 Bft) S-SW 202 7,6 C 10,0 C 0,0 km/h (0 Bft)
19.07.2019 04:18 10,1 C 8,9 C 17,9 C 85 % 1017,1 hPa 0,0 l/m 0,0 km/h (0 Bft) S-SO 157 7,7 C 10,1 C 0,0 km/h (0 Bft)
19.07.2019 04:16 10,2 C 8,8 C 17,9 C 85 % 1017,1 hPa 0,0 l/m 0,0 km/h (0 Bft) S-SO 157 7,8 C 10,2 C 0,0 km/h (0 Bft)
19.07.2019 04:14 10,2 C 8,9 C 17,9 C 85 % 1017,1 hPa 0,0 l/m 0,0 km/h (0 Bft) S-SW 202 7,8 C 10,2 C 0,0 km/h (0 Bft)
19.07.2019 04:12 10,4 C 9,0 C 17,9 C 85 % 1017,1 hPa 0,0 l/m 0,0 km/h (0 Bft) S-SW 202 8,0 C 10,4 C 0,0 km/h (0 Bft)
19.07.2019 04:10 10,3 C 8,8 C 17,9 C 85 % 1017,1 hPa 0,0 l/m 0,0 km/h (0 Bft) S-SO 157 7,9 C 10,3 C 0,0 km/h (0 Bft)
19.07.2019 04:08 10,3 C 8,7 C 17,9 C 85 % 1017,1 hPa 0,0 l/m 0,0 km/h (0 Bft) S-SO 157 7,9 C 10,3 C 0,0 km/h (0 Bft)
19.07.2019 04:06 10,3 C 8,7 C 17,9 C 85 % 1016,9 hPa 0,0 l/m 0,0 km/h (0 Bft) SW 225 7,9 C 10,3 C 0,0 km/h (0 Bft)
19.07.2019 04:04 10,1 C 8,4 C 17,9 C 85 % 1016,9 hPa 0,0 l/m 0,0 km/h (0 Bft) O-SO 112 7,7 C 10,1 C 0,0 km/h (0 Bft)
19.07.2019 04:02 10,2 C 8,4 C 17,9 C 85 % 1016,9 hPa 0,0 l/m 0,0 km/h (0 Bft) SO 135 7,8 C 10,2 C 0,0 km/h (0 Bft)
19.07.2019 04:00 10,3 C 8,7 C 18,0 C 85 % 1016,9 hPa 0,0 l/m 0,0 km/h (0 Bft) N-NO 22 7,9 C 10,3 C 0,0 km/h (0 Bft)
19.07.2019 03:58 10,3 C 9,0 C 18,0 C 85 % 1016,9 hPa 0,0 l/m 0,0 km/h (0 Bft) N-NO 22 7,9 C 10,3 C 0,0 km/h (0 Bft)
19.07.2019 03:56 10,2 C 9,0 C 18,0 C 85 % 1016,9 hPa 0,0 l/m 0,0 km/h (0 Bft) W 270 7,8 C 10,2 C 0,0 km/h (0 Bft)
19.07.2019 03:54 10,3 C 8,5 C 18,0 C 85 % 1016,9 hPa 0,0 l/m 0,0 km/h (0 Bft) N-NW 337 7,9 C 10,3 C 0,0 km/h (0 Bft)
19.07.2019 03:52 10,3 C 8,5 C 18,0 C 85 % 1016,9 hPa 0,0 l/m 0,0 km/h (0 Bft) S-SO 157 7,9 C 10,3 C 0,0 km/h (0 Bft)
19.07.2019 03:50 10,3 C 8,4 C 18,0 C 85 % 1016,9 hPa 0,0 l/m 0,0 km/h (0 Bft) SW 225 7,9 C 10,3 C 0,0 km/h (0 Bft)
19.07.2019 03:48 10,3 C 8,4 C 18,0 C 85 % 1016,9 hPa 0,0 l/m 0,0 km/h (0 Bft) S 180 7,9 C 10,3 C 0,0 km/h (0 Bft)
19.07.2019 03:46 10,5 C 8,5 C 18,0 C 85 % 1017,1 hPa 0,0 l/m 0,0 km/h (0 Bft) W 270 8,1 C 10,5 C 0,0 km/h (0 Bft)
19.07.2019 03:44 10,5 C 8,5 C 18,0 C 84 % 1017,1 hPa 0,0 l/m 0,0 km/h (0 Bft) S 180 7,9 C 10,5 C 0,0 km/h (0 Bft)
19.07.2019 03:42 10,5 C 8,5 C 18,1 C 84 % 1017,1 hPa 0,0 l/m 0,0 km/h (0 Bft) O-SO 112 7,9 C 10,5 C 0,0 km/h (0 Bft)
19.07.2019 03:40 10,5 C 8,7 C 18,1 C 84 % 1017,1 hPa 0,0 l/m 0,0 km/h (0 Bft) O-SO 112 7,9 C 10,5 C 0,0 km/h (0 Bft)
19.07.2019 03:38 10,6 C 8,9 C 18,1 C 84 % 1017,1 hPa 0,0 l/m 0,0 km/h (0 Bft) N 360 8,0 C 10,6 C 0,0 km/h (0 Bft)
19.07.2019 03:36 10,5 C 8,5 C 18,1 C 84 % 1017,1 hPa 0,0 l/m 0,0 km/h (0 Bft) N 360 7,9 C 10,5 C 0,0 km/h (0 Bft)
19.07.2019 03:34 10,6 C 8,7 C 18,1 C 84 % 1017,1 hPa 0,0 l/m 0,0 km/h (0 Bft) O-NO 67 8,0 C 10,6 C 0,0 km/h (0 Bft)
19.07.2019 03:32 10,5 C 8,5 C 18,1 C 84 % 1017,1 hPa 0,0 l/m 0,0 km/h (0 Bft) S-SO 157 7,9 C 10,5 C 0,0 km/h (0 Bft)
19.07.2019 03:30 10,4 C 8,7 C 18,1 C 84 % 1017,1 hPa 0,0 l/m 0,0 km/h (0 Bft) O-SO 112 7,8 C 10,4 C 0,0 km/h (0 Bft)
19.07.2019 03:28 10,5 C 8,9 C 18,1 C 84 % 1017,1 hPa 0,0 l/m 0,0 km/h (0 Bft) NO 45 7,9 C 10,5 C 0,0 km/h (0 Bft)
19.07.2019 03:26 10,6 C 8,9 C 18,1 C 84 % 1016,9 hPa 0,0 l/m 0,0 km/h (0 Bft) N 360 8,0 C 10,6 C 0,0 km/h (0 Bft)
19.07.2019 03:24 10,6 C 9,0 C 18,2 C 84 % 1016,9 hPa 0,0 l/m 0,0 km/h (0 Bft) O-NO 67 8,0 C 10,6 C 0,0 km/h (0 Bft)
19.07.2019 03:22 10,6 C 9,1 C 18,2 C 84 % 1016,9 hPa 0,0 l/m 0,0 km/h (0 Bft) O-SO 112 8,0 C 10,6 C 0,0 km/h (0 Bft)
19.07.2019 03:20 10,6 C 9,0 C 18,2 C 84 % 1016,9 hPa 0,0 l/m 0,0 km/h (0 Bft) W 270 8,0 C 10,6 C 0,0 km/h (0 Bft)
19.07.2019 03:18 10,6 C 8,8 C 18,2 C 84 % 1016,9 hPa 0,0 l/m 0,0 km/h (0 Bft) S-SO 157 8,0 C 10,6 C 0,0 km/h (0 Bft)
19.07.2019 03:16 10,7 C 9,2 C 18,2 C 84 % 1016,9 hPa 0,0 l/m 0,3 km/h (0 Bft) S-SO 157 8,1 C 10,7 C 0,0 km/h (0 Bft)
19.07.2019 03:14 10,8 C 9,4 C 18,2 C 84 % 1016,9 hPa 0,0 l/m 0,3 km/h (0 Bft) O 90 8,2 C 10,8 C 0,0 km/h (0 Bft)
19.07.2019 03:12 10,7 C 9,3 C 18,2 C 84 % 1016,9 hPa 0,0 l/m 0,3 km/h (0 Bft) N-NO 22 8,1 C 10,7 C 0,0 km/h (0 Bft)
19.07.2019 03:10 10,7 C 8,9 C 18,3 C 84 % 1016,9 hPa 0,0 l/m 0,0 km/h (0 Bft) W 270 8,1 C 10,7 C 0,0 km/h (0 Bft)
19.07.2019 03:08 10,7 C 8,9 C 18,3 C 84 % 1016,9 hPa 0,0 l/m 0,0 km/h (0 Bft) W 270 8,1 C 10,7 C 0,0 km/h (0 Bft)
19.07.2019 03:06 10,7 C 8,9 C 18,3 C 84 % 1016,9 hPa 0,0 l/m 0,0 km/h (0 Bft) W 270 8,1 C 10,7 C 0,0 km/h (0 Bft)
19.07.2019 03:04 10,7 C 8,9 C 18,3 C 84 % 1016,9 hPa 0,0 l/m 0,0 km/h (0 Bft) W 270 8,1 C 10,7 C 0,0 km/h (0 Bft)
19.07.2019 03:02 10,7 C 8,9 C 18,3 C 84 % 1016,9 hPa 0,0 l/m 0,0 km/h (0 Bft) W 270 8,1 C 10,7 C 0,0 km/h (0 Bft)
19.07.2019 03:00 10,7 C 8,9 C 18,3 C 84 % 1016,9 hPa 0,0 l/m 0,0 km/h (0 Bft) S-SW 202 8,1 C 10,7 C 0,0 km/h (0 Bft)
19.07.2019 02:58 10,8 C 9,1 C 18,3 C 84 % 1016,9 hPa 0,0 l/m 0,0 km/h (0 Bft) S-SO 157 8,2 C 10,8 C 0,0 km/h (0 Bft)
19.07.2019 02:56 10,8 C 9,2 C 18,3 C 84 % 1016,9 hPa 0,0 l/m 0,0 km/h (0 Bft) O-NO 67 8,2 C 10,8 C 0,0 km/h (0 Bft)
19.07.2019 02:54 10,7 C 9,3 C 18,3 C 84 % 1016,9 hPa 0,0 l/m 0,0 km/h (0 Bft) O-SO 112 8,1 C 10,7 C 0,0 km/h (0 Bft)
19.07.2019 02:52 10,9 C 9,1 C 18,3 C 84 % 1016,9 hPa 0,0 l/m 0,0 km/h (0 Bft) W-SW 247 8,3 C 10,9 C 0,0 km/h (0 Bft)
19.07.2019 02:50 10,9 C 9,0 C 18,3 C 84 % 1016,9 hPa 0,0 l/m 0,0 km/h (0 Bft) S-SO 157 8,3 C 10,9 C 0,0 km/h (0 Bft)
19.07.2019 02:48 10,8 C 9,0 C 18,3 C 84 % 1016,9 hPa 0,0 l/m 0,0 km/h (0 Bft) NW 315 8,2 C 10,8 C 0,0 km/h (0 Bft)
19.07.2019 02:46 10,7 C 9,0 C 18,4 C 83 % 1016,8 hPa 0,0 l/m 0,0 km/h (0 Bft) O-SO 112 7,9 C 10,7 C 0,0 km/h (0 Bft)
19.07.2019 02:44 10,7 C 8,9 C 18,4 C 83 % 1016,8 hPa 0,0 l/m 0,0 km/h (0 Bft) S-SW 202 7,9 C 10,7 C 0,0 km/h (0 Bft)
19.07.2019 02:42 10,7 C 9,0 C 18,4 C 83 % 1016,8 hPa 0,0 l/m 0,0 km/h (0 Bft) S-SO 157 7,9 C 10,7 C 0,0 km/h (0 Bft)
19.07.2019 02:40 10,7 C 9,0 C 18,4 C 83 % 1016,8 hPa 0,0 l/m 0,0 km/h (0 Bft) O-SO 112 7,9 C 10,7 C 0,0 km/h (0 Bft)
19.07.2019 02:38 10,7 C 9,1 C 18,4 C 83 % 1016,8 hPa 0,0 l/m 0,0 km/h (0 Bft) W 270 7,9 C 10,7 C 0,0 km/h (0 Bft)
19.07.2019 02:36 10,7 C 9,4 C 18,4 C 83 % 1016,8 hPa 0,0 l/m 0,0 km/h (0 Bft) N 360 7,9 C 10,7 C 0,0 km/h (0 Bft)
19.07.2019 02:34 10,7 C 9,0 C 18,4 C 83 % 1016,8 hPa 0,0 l/m 0,0 km/h (0 Bft) NO 45 7,9 C 10,7 C 0,0 km/h (0 Bft)
19.07.2019 02:32 10,8 C 9,1 C 18,4 C 83 % 1016,8 hPa 0,0 l/m 0,0 km/h (0 Bft) NO 45 8,0 C 10,8 C 0,0 km/h (0 Bft)
19.07.2019 02:30 10,8 C 9,2 C 18,5 C 83 % 1016,8 hPa 0,0 l/m 0,0 km/h (0 Bft) S 180 8,0 C 10,8 C 0,0 km/h (0 Bft)
19.07.2019 02:28 10,7 C 9,3 C 18,5 C 83 % 1016,8 hPa 0,0 l/m 0,0 km/h (0 Bft) S-SO 157 7,9 C 10,7 C 0,0 km/h (0 Bft)
19.07.2019 02:26 10,7 C 9,1 C 18,5 C 83 % 1016,7 hPa 0,0 l/m 0,0 km/h (0 Bft) S-SO 157 7,9 C 10,7 C 0,0 km/h (0 Bft)
19.07.2019 02:24 10,8 C 9,0 C 18,5 C 83 % 1016,7 hPa 0,0 l/m 0,0 km/h (0 Bft) S-SO 157 8,0 C 10,8 C 0,0 km/h (0 Bft)
19.07.2019 02:22 10,9 C 9,1 C 18,5 C 83 % 1016,7 hPa 0,0 l/m 0,0 km/h (0 Bft) S 180 8,1 C 10,9 C 0,0 km/h (0 Bft)
19.07.2019 02:20 10,9 C 9,3 C 18,5 C 83 % 1016,7 hPa 0,0 l/m 0,0 km/h (0 Bft) S 180 8,1 C 10,9 C 0,0 km/h (0 Bft)
19.07.2019 02:18 10,9 C 9,4 C 18,5 C 83 % 1016,7 hPa 0,0 l/m 0,0 km/h (0 Bft) SW 225 8,1 C 10,9 C 0,0 km/h (0 Bft)
19.07.2019 02:16 10,9 C 9,1 C 18,5 C 83 % 1016,7 hPa 0,0 l/m 0,0 km/h (0 Bft) SW 225 8,1 C 10,9 C 0,0 km/h (0 Bft)
19.07.2019 02:14 10,9 C 9,2 C 18,6 C 83 % 1016,7 hPa 0,0 l/m 0,0 km/h (0 Bft) NO 45 8,1 C 10,9 C 0,0 km/h (0 Bft)
19.07.2019 02:12 10,9 C 9,2 C 18,6 C 83 % 1016,7 hPa 0,0 l/m 0,0 km/h (0 Bft) S-SO 157 8,1 C 10,9 C 0,0 km/h (0 Bft)
19.07.2019 02:10 10,9 C 9,3 C 18,6 C 83 % 1016,7 hPa 0,0 l/m 0,0 km/h (0 Bft) N-NW 337 8,1 C 10,9 C 0,0 km/h (0 Bft)
19.07.2019 02:08 11,0 C 9,6 C 18,6 C 83 % 1016,7 hPa 0,0 l/m 0,0 km/h (0 Bft) S 180 8,2 C 11,0 C 0,0 km/h (0 Bft)
19.07.2019 02:06 10,9 C 9,5 C 18,6 C 83 % 1016,6 hPa 0,0 l/m 0,0 km/h (0 Bft) O-NO 67 8,1 C 10,9 C 0,0 km/h (0 Bft)
19.07.2019 02:04 11,0 C 9,5 C 18,6 C 83 % 1016,6 hPa 0,0 l/m 0,0 km/h (0 Bft) N-NO 22 8,2 C 11,0 C 0,0 km/h (0 Bft)
19.07.2019 02:02 11,1 C 9,6 C 18,6 C 83 % 1016,6 hPa 0,0 l/m 0,0 km/h (0 Bft) S-SO 157 8,3 C 11,1 C 0,0 km/h (0 Bft)
19.07.2019 02:00 11,1 C 9,4 C 18,6 C 83 % 1016,6 hPa 0,0 l/m 0,0 km/h (0 Bft) NW 315 8,3 C 11,1 C 0,0 km/h (0 Bft)
19.07.2019 01:58 11,0 C 9,4 C 18,7 C 83 % 1016,6 hPa 0,0 l/m 0,0 km/h (0 Bft) N 360 8,2 C 11,0 C 0,0 km/h (0 Bft)
19.07.2019 01:56 11,1 C 9,5 C 18,7 C 83 % 1016,6 hPa 0,0 l/m 0,0 km/h (0 Bft) SO 135 8,3 C 11,1 C 0,0 km/h (0 Bft)
19.07.2019 01:54 11,0 C 9,2 C 18,7 C 82 % 1016,6 hPa 0,0 l/m 0,0 km/h (0 Bft) W 270 8,0 C 11,0 C 0,0 km/h (0 Bft)
19.07.2019 01:52 11,1 C 9,3 C 18,7 C 82 % 1016,6 hPa 0,0 l/m 0,0 km/h (0 Bft) S-SO 157 8,1 C 11,1 C 0,0 km/h (0 Bft)
19.07.2019 01:50 11,1 C 9,3 C 18,7 C 82 % 1016,6 hPa 0,0 l/m 0,0 km/h (0 Bft) S 180 8,1 C 11,1 C 0,0 km/h (0 Bft)
19.07.2019 01:48 11,1 C 9,2 C 18,7 C 82 % 1016,6 hPa 0,0 l/m 0,0 km/h (0 Bft) N 360 8,1 C 11,1 C 0,0 km/h (0 Bft)
19.07.2019 01:46 11,1 C 9,2 C 18,7 C 82 % 1016,4 hPa 0,0 l/m 0,0 km/h (0 Bft) S-SO 157 8,1 C 11,1 C 0,0 km/h (0 Bft)
19.07.2019 01:44 11,0 C 9,3 C 18,7 C 82 % 1016,4 hPa 0,0 l/m 0,0 km/h (0 Bft) O-SO 112 8,0 C 11,0 C 0,0 km/h (0 Bft)
19.07.2019 01:42 11,2 C 9,3 C 18,8 C 82 % 1016,4 hPa 0,0 l/m 0,0 km/h (0 Bft) SO 135 8,2 C 11,2 C 0,0 km/h (0 Bft)
19.07.2019 01:40 11,0 C 9,2 C 18,8 C 82 % 1016,4 hPa 0,0 l/m 0,0 km/h (0 Bft) O-SO 112 8,0 C 11,0 C 0,0 km/h (0 Bft)
19.07.2019 01:38 11,0 C 9,2 C 18,8 C 82 % 1016,4 hPa 0,0 l/m 0,0 km/h (0 Bft) NO 45 8,0 C 11,0 C 0,0 km/h (0 Bft)
19.07.2019 01:36 11,0 C 9,5 C 18,8 C 82 % 1016,4 hPa 0,0 l/m 0,0 km/h (0 Bft) O-SO 112 8,0 C 11,0 C 0,0 km/h (0 Bft)
19.07.2019 01:34 11,1 C 9,6 C 18,8 C 82 % 1016,4 hPa 0,0 l/m 0,0 km/h (0 Bft) S 180 8,1 C 11,1 C 0,0 km/h (0 Bft)
19.07.2019 01:32 11,1 C 9,5 C 18,8 C 82 % 1016,4 hPa 0,0 l/m 0,0 km/h (0 Bft) W 270 8,1 C 11,1 C 0,0 km/h (0 Bft)
19.07.2019 01:30 11,1 C 9,3 C 18,8 C 82 % 1016,4 hPa 0,0 l/m 0,0 km/h (0 Bft) S 180 8,1 C 11,1 C 0,0 km/h (0 Bft)
19.07.2019 01:28 11,3 C 9,2 C 18,8 C 82 % 1016,4 hPa 0,0 l/m 0,0 km/h (0 Bft) S-SW 202 8,3 C 11,3 C 0,0 km/h (0 Bft)
19.07.2019 01:26 11,3 C 9,2 C 18,9 C 82 % 1016,4 hPa 0,0 l/m 0,0 km/h (0 Bft) W-SW 247 8,3 C 11,3 C 0,0 km/h (0 Bft)
19.07.2019 01:24 11,4 C 9,2 C 18,9 C 82 % 1016,4 hPa 0,0 l/m 0,0 km/h (0 Bft) N 360 8,4 C 11,4 C 0,0 km/h (0 Bft)
19.07.2019 01:22 11,4 C 9,2 C 18,9 C 82 % 1016,4 hPa 0,0 l/m 0,0 km/h (0 Bft) O-NO 67 8,4 C 11,4 C 0,0 km/h (0 Bft)
19.07.2019 01:20 11,4 C 9,2 C 18,9 C 82 % 1016,4 hPa 0,0 l/m 0,0 km/h (0 Bft) NO 45 8,4 C 11,4 C 0,0 km/h (0 Bft)
19.07.2019 01:18 11,5 C 9,3 C 18,9 C 82 % 1016,4 hPa 0,0 l/m 0,0 km/h (0 Bft) S-SO 157 8,5 C 11,5 C 0,0 km/h (0 Bft)
19.07.2019 01:16 11,4 C 9,3 C 18,9 C 82 % 1016,4 hPa 0,0 l/m 0,0 km/h (0 Bft) N-NO 22 8,4 C 11,4 C 0,0 km/h (0 Bft)
19.07.2019 01:14 11,5 C 9,4 C 18,9 C 81 % 1016,4 hPa 0,0 l/m 0,0 km/h (0 Bft) N-NO 22 8,4 C 11,5 C 0,0 km/h (0 Bft)
19.07.2019 01:12 11,5 C 9,6 C 18,9 C 81 % 1016,4 hPa 0,0 l/m 0,0 km/h (0 Bft) O-NO 67 8,4 C 11,5 C 0,0 km/h (0 Bft)
19.07.2019 01:10 11,4 C 9,6 C 19,0 C 81 % 1016,4 hPa 0,0 l/m 0,0 km/h (0 Bft) S-SO 157 8,3 C 11,4 C 0,0 km/h (0 Bft)
19.07.2019 01:08 11,4 C 9,6 C 19,0 C 81 % 1016,4 hPa 0,0 l/m 0,0 km/h (0 Bft) SO 135 8,3 C 11,4 C 0,0 km/h (0 Bft)
19.07.2019 01:06 11,3 C 9,6 C 19,0 C 81 % 1016,2 hPa 0,0 l/m 0,0 km/h (0 Bft) S 180 8,2 C 11,3 C 0,0 km/h (0 Bft)
19.07.2019 01:04 11,4 C 9,7 C 19,0 C 81 % 1016,2 hPa 0,0 l/m 0,0 km/h (0 Bft) N 360 8,3 C 11,4 C 0,0 km/h (0 Bft)
19.07.2019 01:02 11,4 C 9,7 C 19,0 C 81 % 1016,2 hPa 0,0 l/m 0,0 km/h (0 Bft) NO 45 8,3 C 11,4 C 0,0 km/h (0 Bft)
19.07.2019 01:00 11,4 C 9,9 C 19,0 C 81 % 1016,2 hPa 0,0 l/m 0,0 km/h (0 Bft) N 360 8,3 C 11,4 C 0,0 km/h (0 Bft)
19.07.2019 00:58 11,5 C 10,1 C 19,0 C 81 % 1016,2 hPa 0,0 l/m 0,0 km/h (0 Bft) S-SW 202 8,4 C 11,5 C 0,0 km/h (0 Bft)
19.07.2019 00:56 11,5 C 9,9 C 19,0 C 81 % 1016,2 hPa 0,0 l/m 0,0 km/h (0 Bft) O 90 8,4 C 11,5 C 0,0 km/h (0 Bft)
19.07.2019 00:54 11,5 C 9,7 C 19,1 C 81 % 1016,2 hPa 0,0 l/m 0,0 km/h (0 Bft) O-SO 112 8,4 C 11,5 C 0,0 km/h (0 Bft)
19.07.2019 00:52 11,6 C 9,7 C 19,1 C 80 % 1016,2 hPa 0,0 l/m 0,0 km/h (0 Bft) SO 135 8,3 C 11,6 C 0,0 km/h (0 Bft)
19.07.2019 00:50 11,6 C 9,6 C 19,1 C 80 % 1016,2 hPa 0,0 l/m 0,0 km/h (0 Bft) S-SO 157 8,3 C 11,6 C 0,0 km/h (0 Bft)
19.07.2019 00:48 11,6 C 9,7 C 19,1 C 80 % 1016,2 hPa 0,0 l/m 0,0 km/h (0 Bft) N-NO 22 8,3 C 11,6 C 0,0 km/h (0 Bft)
19.07.2019 00:46 11,6 C 9,9 C 19,1 C 80 % 1016,1 hPa 0,0 l/m 0,0 km/h (0 Bft) W-NW 292 8,3 C 11,6 C 0,0 km/h (0 Bft)
19.07.2019 00:44 11,7 C 10,0 C 19,1 C 80 % 1016,1 hPa 0,0 l/m 0,0 km/h (0 Bft) O-SO 112 8,4 C 11,7 C 0,0 km/h (0 Bft)
19.07.2019 00:42 11,6 C 10,1 C 19,1 C 80 % 1016,1 hPa 0,0 l/m 0,0 km/h (0 Bft) SO 135 8,3 C 11,6 C 0,0 km/h (0 Bft)
19.07.2019 00:40 11,7 C 10,1 C 19,1 C 80 % 1016,1 hPa 0,0 l/m 0,0 km/h (0 Bft) O 90 8,4 C 11,7 C 0,0 km/h (0 Bft)
19.07.2019 00:38 11,7 C 10,1 C 19,2 C 80 % 1016,1 hPa 0,0 l/m 0,0 km/h (0 Bft) SO 135 8,4 C 11,7 C 0,0 km/h (0 Bft)
19.07.2019 00:36 11,7 C 10,0 C 19,2 C 80 % 1016,1 hPa 0,0 l/m 0,0 km/h (0 Bft) NO 45 8,4 C 11,7 C 0,0 km/h (0 Bft)
19.07.2019 00:34 11,7 C 10,1 C 19,2 C 80 % 1016,1 hPa 0,0 l/m 0,0 km/h (0 Bft) S-SO 157 8,4 C 11,7 C 0,0 km/h (0 Bft)
19.07.2019 00:32 11,8 C 10,2 C 19,2 C 80 % 1016,1 hPa 0,0 l/m 0,0 km/h (0 Bft) O 90 8,5 C 11,8 C 0,0 km/h (0 Bft)
19.07.2019 00:30 11,8 C 10,3 C 19,2 C 80 % 1016,1 hPa 0,0 l/m 0,0 km/h (0 Bft) SW 225 8,5 C 11,8 C 0,0 km/h (0 Bft)
19.07.2019 00:28 12,0 C 10,4 C 19,2 C 80 % 1016,1 hPa 0,0 l/m 0,3 km/h (0 Bft) S-SW 202 8,7 C 12,0 C 0,0 km/h (0 Bft)
19.07.2019 00:26 12,0 C 10,2 C 19,2 C 79 % 1016,0 hPa 0,0 l/m 0,5 km/h (0 Bft) O-NO 67 8,5 C 12,0 C 0,0 km/h (0 Bft)
19.07.2019 00:24 12,1 C 10,3 C 19,3 C 79 % 1016,0 hPa 0,0 l/m 0,5 km/h (0 Bft) S-SW 202 8,6 C 12,1 C 0,0 km/h (0 Bft)
19.07.2019 00:22 12,1 C 10,4 C 19,3 C 79 % 1016,0 hPa 0,0 l/m 0,5 km/h (0 Bft) NW 315 8,6 C 12,1 C 0,0 km/h (0 Bft)
19.07.2019 00:20 12,1 C 10,5 C 19,3 C 79 % 1016,0 hPa 0,0 l/m 0,5 km/h (0 Bft) W 270 8,6 C 12,1 C 2,5 km/h (1 Bft)
19.07.2019 00:18 12,5 C 10,7 C 19,3 C 79 % 1016,0 hPa 0,0 l/m 0,3 km/h (0 Bft) O-NO 67 9,0 C 12,5 C 2,5 km/h (1 Bft)
19.07.2019 00:16 12,2 C 10,3 C 19,3 C 79 % 1016,0 hPa 0,0 l/m 0,0 km/h (0 Bft) N-NW 337 8,7 C 12,2 C 0,0 km/h (0 Bft)
19.07.2019 00:14 12,2 C 10,3 C 19,3 C 79 % 1016,0 hPa 0,0 l/m 0,0 km/h (0 Bft) N-NW 337 8,7 C 12,2 C 0,0 km/h (0 Bft)
19.07.2019 00:12 12,2 C 10,4 C 19,2 C 79 % 1016,0 hPa 0,0 l/m 0,0 km/h (0 Bft) S-SW 202 8,7 C 12,2 C 0,0 km/h (0 Bft)
19.07.2019 00:10 12,3 C 10,5 C 19,3 C 78 % 1016,0 hPa 0,0 l/m 0,0 km/h (0 Bft) W 270 8,6 C 12,3 C 0,0 km/h (0 Bft)
19.07.2019 00:08 12,3 C 10,5 C 19,3 C 78 % 1016,0 hPa 0,0 l/m 0,0 km/h (0 Bft) W 270 8,6 C 12,3 C 0,0 km/h (0 Bft)
19.07.2019 00:06 12,3 C 10,5 C 19,3 C 78 % 1016,0 hPa 0,0 l/m 0,0 km/h (0 Bft) W 270 8,6 C 12,3 C 0,0 km/h (0 Bft)
19.07.2019 00:04 12,3 C 10,5 C 19,3 C 78 % 1016,0 hPa 0,0 l/m 0,0 km/h (0 Bft) W 270 8,6 C 12,3 C 0,0 km/h (0 Bft)
19.07.2019 00:02 12,3 C 10,5 C 19,3 C 78 % 1016,0 hPa 0,0 l/m 0,0 km/h (0 Bft) W 270 8,6 C 12,3 C 0,0 km/h (0 Bft)
19.07.2019 00:00 12,3 C 10,5 C 19,3 C 78 % 1016,0 hPa 0,0 l/m 0,0 km/h (0 Bft) W-SW 247 8,6 C 12,3 C 0,0 km/h (0 Bft)
_ Min-Zeit 05:28 03:48 08:30 12:12 09:48 - 00:00 - - 05:28 05:28 00:00
Minimum _ 9,8 C 8,4 C 17,0 C 43 % 1014,7 hPa - 0,0 km/h (0 Bft) - - 7,6 C 9,8 C 0,0 km/h (0 Bft)
_ Max-Zeit 14:00 14:00 17:54 05:40 07:08 15:02 17:04 - - 09:00 14:00 14:54
Maximum _ 25,7 C 38,0 C 21,2 C 87 % 1018,0 hPa 0,2 l/m 12,4 km/h
O-SO (3 Bft)
- - 15,4 C 25,7 C 28,4 km/h
SW (4 Bft)
Durchschnitt _ 18,5 C 19,9 C 19,0 C 64 % 1016,6 hPa #0,3 l/m 2,6 km/h (1 Bft) W-NW - 11,0 C 18,4 C 4,8 km/h (1 Bft)